GFSFLT1_sfc_thetae_000.txt.gz
Theta_e
303 303 302 302 301 302 301 300 302 304 303 302 301 301 302 302 306 308 309 307 307 303 305 304 302 301 300 300 298 299 298 297
301 301 301 300 300 301 301 301 301 301 299 299 298 298 300 300 302 308 307 306 306 302 301 304 303 300 300 299 298 298 297 297
301 301 298 300 300 300 300 301 301 301 299 299 299 298 299 300 301 301 306 305 304 302 301 301 301 300 299 299 299 297 297 297
300 302 299 299 300 300 301 301 301 301 301 299 298 298 298 298 299 299 302 304 304 303 301 300 299 299 298 298 297 296 294 296
299 299 299 300 301 300 300 302 301 302 301 299 298 300 299 301 301 298 300 303 303 302 302 300 299 299 298 298 298 296 295 293
298 297 299 300 301 301 302 302 302 303 303 301 299 298 300 301 297 297 297 299 301 302 301 300 299 299 297 295 295 293 295 293
300 300 301 301 302 302 303 303 303 304 303 302 300 298 300 298 299 298 298 296 296 298 298 297 296 295 294 294 294 291 292 292
298 299 300 301 301 301 302 302 303 305 302 302 302 301 300 299 299 299 298 296 295 295 295 295 294 293 294 293 295 294 292 291
299 300 301 301 301 301 302 303 301 302 301 301 300 300 300 299 297 296 294 295 294 294 293 294 295 295 295 295 295 295 293 291
299 301 301 300 299 300 300 300 301 301 300 298 295 294 295 292 291 293 293 293 294 294 295 296 297 297 296 294 292 291 292 292
300 300 300 300 299 300 301 300 300 300 295 295 293 292 292 292 292 291 291 293 295 296 297 297 297 295 294 293 292 290 290 290
298 301 302 303 302 302 300 299 298 294 293 293 292 291 291 290 290 291 291 292 294 294 294 294 293 293 292 291 289 289 289 288
298 299 300 300 299 298 299 298 294 293 293 292 291 290 289 288 289 290 291 291 292 291 291 291 291 291 290 289 288 288 286 285
298 298 299 299 298 298 299 298 293 293 292 290 288 288 287 288 288 289 290 290 290 290 290 289 290 290 289 288 287 286 286 286
298 298 298 298 298 298 298 293 293 293 292 288 287 287 287 287 288 288 289 289 289 289 289 290 289 288 287 286 286 284 283 283
297 297 297 297 297 297 294 294 294 293 289 289 289 290 290 289 288 289 291 290 289 289 288 287 286 285 286 284 283 281 281 281
298 298 298 297 297 295 294 294 294 294 294 294 294 293 293 292 292 292 291 289 288 286 284 284 283 285 287 287 285 281 281 281
296 298 297 296 294 293 292 293 294 295 295 295 294 294 293 292 292 291 287 285 283 282 282 281 281 281 286 286 285 282 281 280
297 297 295 294 293 292 292 293 293 293 293 293 293 292 290 289 286 285 282 282 281 280 280 281 280 282 285 285 284 281 280 280

GFSFLT1_sfc_thetae_003.txt.gz
Theta_e
301 300 300 301 302 301 300 303 304 303 302 301 299 300 301 302 303 307 309 307 308 304 304 305 302 300 299 299 298 298 297 297
298 299 298 299 299 300 299 299 299 300 299 298 298 298 298 300 300 303 307 308 306 303 302 303 302 300 300 299 298 296 296 296
298 298 296 298 298 299 299 300 300 299 298 298 298 297 298 298 299 300 305 307 307 304 301 302 303 301 299 299 298 296 296 296
298 299 297 297 297 298 299 299 299 300 300 298 297 297 297 297 298 298 300 304 307 305 302 301 301 301 300 298 297 296 294 294
298 299 298 298 298 298 299 299 299 300 300 299 297 298 298 301 301 300 300 300 303 305 304 300 300 298 296 296 296 295 294 291
297 298 297 297 298 298 299 301 302 302 301 301 300 298 300 301 301 297 298 298 300 302 303 301 298 299 299 298 295 293 292 291
299 299 300 300 300 300 301 301 302 303 302 302 300 298 299 298 299 297 298 296 296 298 299 299 296 296 294 291 292 292 292 291
297 297 299 300 299 299 300 300 300 300 300 300 300 299 298 297 298 298 296 293 292 292 294 293 293 293 294 295 294 294 293 292
298 300 299 298 298 299 299 299 299 300 299 298 297 296 296 297 296 294 293 291 290 292 293 296 296 296 297 297 297 295 295 293
297 297 298 298 298 299 299 299 299 299 297 294 294 294 294 294 291 291 290 291 293 293 295 296 296 296 296 297 295 293 293 292
297 298 298 299 299 298 298 298 298 297 292 293 294 293 292 291 290 290 290 292 294 295 296 296 296 296 296 295 293 292 291 291
297 298 299 299 299 298 297 297 297 294 292 292 292 293 290 289 289 289 290 293 294 293 292 294 294 293 293 292 290 289 289 288
298 298 298 298 298 297 297 296 295 292 293 292 293 291 289 287 288 289 290 291 292 291 291 291 291 290 290 288 287 287 286 285
299 298 299 299 298 297 297 297 292 292 292 292 290 287 286 286 288 290 290 290 290 290 289 288 289 289 288 287 286 285 285 285
298 298 297 297 297 297 296 293 293 292 291 288 285 285 285 286 287 289 290 291 289 289 289 289 288 287 286 285 284 282 281 282
297 298 297 296 296 295 294 293 293 293 291 288 288 290 290 288 291 292 291 291 291 289 288 286 285 285 285 283 282 282 281 281
297 296 296 296 296 294 293 292 292 293 291 292 294 294 293 293 293 292 291 292 291 287 284 283 283 284 287 286 285 281 281 280
295 295 295 295 293 292 291 291 292 291 291 293 294 293 293 292 292 292 291 286 284 283 282 282 282 282 286 286 285 281 280 280
295 296 294 293 292 291 290 290 290 291 290 287 288 289 288 286 285 284 282 282 281 280 281 281 281 282 284 284 284 280 278 279

GFSFLT1_sfc_thetae_006.txt.gz
Theta_e
298 298 298 299 301 304 303 305 307 305 302 301 300 299 300 302 302 303 307 308 308 306 304 304 302 300 299 298 297 297 297 296
296 297 298 299 300 299 299 300 300 299 299 299 298 299 298 299 300 302 303 306 307 306 304 303 303 301 301 298 297 297 296 296
297 297 296 298 299 299 298 298 298 297 297 297 297 296 297 297 298 299 300 302 305 306 305 303 302 302 299 298 297 295 295 295
296 297 296 296 297 296 297 297 297 298 298 297 297 297 297 297 299 298 300 300 302 305 305 304 302 302 302 300 298 296 295 294
297 297 295 297 297 297 298 299 299 301 300 299 298 296 296 299 299 299 300 300 299 302 305 304 302 301 301 299 298 297 294 292
294 295 297 298 297 298 299 300 301 300 300 299 299 298 298 299 299 298 299 299 297 298 300 301 300 297 297 298 296 294 294 292
297 298 299 298 298 298 299 299 300 300 299 298 297 295 295 296 297 296 297 297 295 295 296 296 295 293 292 292 294 293 290 292
295 297 297 298 298 298 299 298 299 299 298 296 294 294 294 294 295 296 295 293 290 290 291 292 293 293 294 296 294 294 294 294
297 298 297 297 298 298 298 298 298 298 297 294 294 295 294 295 295 294 292 290 290 292 293 294 294 294 294 295 294 295 295 294
296 298 299 298 299 299 298 297 297 298 296 292 293 294 294 295 294 290 290 290 293 293 293 294 294 296 296 295 293 292 291 291
298 298 299 299 298 298 298 297 297 297 293 293 294 293 294 294 291 289 289 290 293 293 293 293 293 293 293 294 294 294 292 292
296 297 298 298 298 297 297 296 296 296 292 292 292 294 293 291 288 288 289 291 292 291 292 292 292 293 293 292 291 290 289 289
296 297 297 297 297 297 297 296 296 293 293 292 292 290 288 287 287 288 289 289 289 289 290 290 290 289 289 288 287 287 286 285
297 298 298 297 297 297 297 296 294 293 293 291 288 286 284 285 286 288 289 289 290 290 290 290 290 289 288 287 285 284 284 283
296 296 297 297 297 296 296 294 293 293 292 289 287 286 285 286 289 289 290 290 291 291 291 289 288 286 286 285 285 283 282 282
295 296 298 297 297 297 294 293 293 292 291 291 289 292 291 290 290 290 291 291 291 292 291 287 285 285 285 283 282 282 281 280
296 295 295 296 296 293 292 292 292 292 291 291 293 294 294 292 292 291 291 291 291 291 287 282 282 283 287 286 285 282 282 281
292 292 294 295 293 291 291 291 291 291 291 289 289 290 291 290 291 290 288 285 283 281 281 281 282 282 285 285 285 282 281 280
293 294 294 292 292 290 288 287 287 286 286 287 288 287 285 284 283 282 281 281 280 280 280 281 280 280 283 283 282 280 278 278

GFSFLT1_sfc_thetae_009.txt.gz
Theta_e
305 306 307 309 313 316 319 318 319 318 317 315 314 313 313 313 314 314 315 316 318 319 318 317 317 314 314 312 311 310 308 308
304 305 307 308 311 313 314 314 314 312 310 310 310 310 310 310 311 311 311 312 313 315 315 316 316 313 313 313 311 309 307 308
303 305 307 308 310 310 307 306 307 307 307 308 308 308 309 308 309 311 311 310 311 310 312 312 313 312 313 313 310 309 307 308
304 305 306 306 306 305 305 306 307 308 309 309 309 309 309 309 308 308 309 310 310 310 310 310 311 311 310 313 312 309 307 307
304 305 305 305 306 308 309 309 309 308 309 307 306 304 303 305 306 306 307 309 309 308 308 308 309 310 309 310 311 310 308 306
302 304 305 305 307 307 308 308 308 308 307 305 305 304 305 305 305 304 305 306 307 306 305 305 306 307 308 308 308 306 306 304
303 305 305 306 307 308 308 308 307 308 307 305 304 304 303 303 304 303 304 304 304 303 302 303 302 302 301 301 300 301 300 300
303 304 304 305 306 306 307 306 306 306 306 303 303 304 304 303 302 302 301 301 301 300 300 301 301 301 301 301 300 299 298 297
303 303 304 304 305 306 306 305 305 306 306 303 303 303 302 301 301 301 301 299 299 300 301 301 301 301 301 301 300 295 294 293
303 304 305 305 305 306 305 305 305 305 305 302 302 301 300 300 300 299 298 297 299 301 301 301 301 301 300 298 298 294 292 291
304 305 305 305 306 305 306 306 304 304 303 300 300 300 300 298 296 295 296 297 300 300 299 297 297 297 297 296 296 296 295 295
304 304 305 304 305 305 305 305 303 303 299 299 299 298 295 293 294 295 295 298 297 295 295 295 294 293 294 295 294 294 293 293
303 303 304 304 304 304 304 303 301 299 298 299 297 294 292 292 293 294 295 295 295 294 294 294 293 293 294 292 291 291 290 289
303 303 302 302 301 302 302 301 299 299 298 297 294 293 292 294 295 295 296 296 295 296 294 293 293 292 291 290 289 289 289 289
301 301 299 299 300 300 299 298 298 297 297 296 294 294 294 295 295 295 295 295 294 293 292 293 292 291 289 289 289 288 288 287
299 297 296 297 298 298 297 297 297 297 296 296 295 296 296 294 293 294 294 294 294 294 293 292 288 287 287 288 288 287 287 286
295 295 294 296 297 296 295 295 295 296 295 292 291 292 293 292 293 293 293 291 289 287 287 286 286 286 286 287 286 286 285 284
293 294 295 296 296 295 294 294 294 294 291 291 291 292 290 289 288 288 287 287 287 286 286 286 285 285 283 284 283 284 283 283
293 294 296 297 296 294 293 292 291 291 290 291 291 289 287 287 287 286 285 285 285 284 285 284 283 283 282 282 282 283 283 282

GFSFLT1_sfc_thetae_012.txt.gz
Theta_e
317 316 316 317 322 326 330 328 325 325 326 324 321 320 320 320 319 319 319 319 320 320 320 322 322 321 320 319 318 318 316 315
313 315 316 317 321 321 322 321 317 320 319 315 316 316 316 317 318 318 318 318 318 318 317 318 319 318 319 319 318 317 316 316
312 315 316 317 316 316 314 313 314 314 316 316 316 316 317 317 317 317 316 315 315 314 315 314 315 314 316 317 317 315 315 316
310 311 313 315 315 315 314 315 315 316 315 316 316 316 315 313 312 312 312 312 312 312 312 312 313 313 312 314 314 314 312 315
310 311 312 314 315 316 315 315 314 314 314 313 312 310 309 310 310 311 310 311 310 310 310 311 312 311 311 311 311 312 312 309
310 310 312 313 314 315 315 314 313 313 312 312 311 310 310 310 310 309 309 309 309 308 309 309 310 310 311 311 311 311 311 309
310 311 312 312 315 315 314 313 312 313 313 310 310 309 309 308 307 305 305 306 306 307 307 308 308 308 308 307 307 305 305 304
309 309 310 311 312 313 313 312 311 311 311 309 309 309 308 307 306 304 303 303 304 305 306 307 307 307 307 304 301 298 297 294
309 309 310 311 311 312 312 311 310 309 309 309 309 309 308 305 304 303 302 302 303 305 306 305 305 304 304 303 301 299 295 293
308 309 310 311 311 311 312 311 311 310 309 309 308 308 305 303 302 302 302 303 302 305 304 303 302 301 300 299 297 296 297 296
308 309 310 310 311 312 312 311 310 310 309 307 306 305 303 301 301 300 301 302 303 302 301 300 299 298 298 296 296 296 295 295
308 308 309 310 310 310 309 309 308 306 306 305 304 302 300 300 300 300 300 300 299 298 298 298 297 295 295 295 295 295 294 293
308 308 308 308 308 307 306 306 305 304 304 303 301 300 300 299 299 299 300 299 299 298 297 296 295 295 296 293 293 293 292 291
307 307 307 305 304 303 303 303 303 303 302 301 300 300 299 298 298 298 298 297 297 297 296 294 294 295 295 294 293 292 292 291
306 305 304 302 301 301 302 302 302 301 300 299 299 298 298 298 297 297 297 296 295 295 295 294 293 292 291 291 291 291 290 290
302 301 299 299 299 301 302 300 299 300 299 299 297 297 297 296 295 295 295 295 293 292 291 291 291 290 289 289 289 289 289 288
296 296 297 297 299 300 298 297 298 300 298 296 296 295 295 294 294 293 292 291 291 291 290 290 289 289 284 284 285 286 287 287
295 296 296 298 300 298 297 297 298 297 296 295 294 294 293 292 291 290 289 290 290 289 289 289 288 288 283 283 282 285 285 286
296 297 297 299 300 298 298 297 296 296 295 294 294 292 291 290 289 289 289 289 289 288 288 287 287 286 283 282 281 284 285 285

GFSFLT1_sfc_thetae_015.txt.gz
Theta_e
323 321 321 320 323 325 328 333 330 327 326 325 322 322 321 322 320 320 321 321 321 321 320 322 322 319 320 321 322 321 321 319
319 319 320 322 326 327 328 326 321 321 320 317 317 317 318 319 320 320 320 319 318 317 316 317 318 316 318 320 319 319 317 320
315 318 319 320 320 320 319 318 318 318 318 318 319 318 318 319 319 318 318 316 315 314 314 313 314 312 316 317 317 315 316 318
313 315 317 319 318 318 317 317 318 317 318 318 317 317 317 316 315 315 315 315 314 313 312 312 313 314 312 315 315 314 311 314
313 314 315 317 317 318 317 317 316 316 317 315 315 313 311 313 314 314 313 313 311 310 310 312 313 312 312 313 311 314 312 309
312 313 315 316 317 318 318 316 316 316 316 315 313 312 312 313 312 311 310 310 310 308 309 311 310 310 310 310 309 309 308 307
312 313 314 315 317 318 317 316 315 315 315 315 312 311 310 309 309 307 307 307 306 307 306 308 309 308 308 308 306 305 302 302
311 312 313 313 314 315 316 315 314 315 313 313 313 311 310 308 307 306 304 303 304 306 306 307 306 307 306 304 302 300 298 297
311 311 313 313 313 315 315 314 313 314 314 313 312 311 309 307 305 303 302 302 304 304 305 306 304 304 302 300 298 296 295 296
310 311 312 312 313 313 314 313 312 312 312 312 310 308 307 304 303 302 302 303 303 304 304 303 301 299 300 300 299 298 298 297
310 311 312 312 312 313 313 312 310 310 308 308 307 306 305 303 302 301 301 302 302 301 301 300 299 298 298 298 296 297 296 297
309 310 311 311 312 311 310 309 308 307 307 306 305 304 303 302 301 301 300 300 300 299 299 298 297 296 296 296 295 296 294 294
308 308 308 309 309 309 307 306 305 305 304 303 302 302 301 301 300 298 299 298 299 299 299 296 296 296 296 295 295 294 293 292
306 307 307 306 306 306 304 304 304 304 302 301 300 300 300 298 298 297 297 297 296 297 297 296 295 295 293 292 292 292 291 291
304 305 305 305 303 302 302 303 303 301 300 300 299 299 298 297 297 297 296 295 294 293 293 292 292 292 291 291 291 290 290 290
303 303 302 301 300 301 302 302 301 300 299 299 298 298 297 296 296 295 294 293 292 292 292 292 292 291 290 289 288 287 287 287
301 299 299 298 299 300 301 300 300 299 298 297 298 297 295 295 294 293 292 292 291 291 291 291 290 289 285 284 284 285 285 285
299 298 299 299 299 300 300 299 300 298 297 297 296 296 295 294 292 291 291 290 291 290 290 290 289 289 284 283 283 284 284 285
299 299 298 299 300 300 301 300 299 298 297 296 296 295 294 292 292 290 290 290 290 289 289 289 288 287 285 283 282 283 284 284

GFSFLT1_sfc_thetae_018.txt.gz
Theta_e
322 321 321 321 326 326 328 330 329 328 326 324 322 321 321 321 320 320 320 318 319 317 316 317 318 314 314 313 314 314 313 313
318 319 322 324 327 324 326 322 322 320 319 316 317 316 317 318 318 320 318 317 316 314 312 312 311 310 310 311 310 309 309 311
316 317 318 319 319 319 318 318 318 317 317 317 317 316 317 317 318 317 317 315 314 312 312 310 309 308 307 307 308 308 307 309
313 315 317 319 318 318 316 317 317 317 317 316 315 316 315 314 313 313 315 314 312 311 310 308 308 308 306 305 305 305 304 305
313 314 315 316 317 318 317 317 316 316 317 314 314 312 309 312 312 312 311 311 310 308 307 307 306 306 305 305 306 305 304 301
312 313 314 315 318 318 318 317 316 316 315 315 312 310 310 310 309 309 308 307 306 306 305 304 304 305 304 305 304 302 300 298
312 314 315 315 318 318 318 316 315 316 314 313 312 310 309 307 307 305 303 303 303 303 304 303 304 304 302 302 300 299 297 297
312 312 312 314 314 316 315 315 313 314 315 313 312 310 308 305 304 301 300 300 300 300 302 303 302 302 300 299 297 295 295 294
311 312 312 313 314 314 314 313 311 311 312 311 311 309 306 304 302 300 300 299 300 302 301 302 299 299 299 299 298 296 294 295
311 312 313 312 312 313 313 311 310 310 310 309 308 306 305 302 301 300 300 300 300 299 300 299 298 298 298 297 296 295 295 295
310 310 311 311 312 312 312 310 308 308 306 305 304 303 303 302 300 299 299 298 299 298 298 298 298 297 296 295 294 294 295 295
309 309 310 310 311 309 308 307 305 304 304 304 303 302 301 301 300 298 298 297 297 297 298 297 296 295 295 295 294 293 293 292
307 308 309 308 307 307 306 304 303 303 303 301 300 300 300 299 298 297 297 296 296 296 295 295 294 294 294 293 292 292 291 290
306 306 306 305 305 304 303 303 302 302 300 299 298 299 298 297 296 297 296 295 294 294 292 291 290 290 289 289 289 288 287 287
304 304 304 303 302 302 301 301 303 300 299 298 297 298 297 295 295 296 295 294 292 291 291 291 291 290 290 289 288 286 285 285
302 302 301 300 300 300 300 301 301 300 299 297 297 298 297 295 295 295 294 293 291 291 290 290 290 289 287 285 285 284 283 283
300 300 300 299 299 299 299 300 300 300 298 297 298 297 297 295 294 294 293 291 290 290 289 289 288 288 285 285 283 281 283 282
299 299 299 298 297 298 297 298 300 299 298 298 297 297 295 295 294 292 291 289 289 288 288 288 287 286 285 285 283 281 281 280
299 299 298 298 297 297 297 297 296 296 297 296 296 296 295 294 293 291 290 289 288 287 287 286 285 286 287 285 284 280 280 280

GFSFLT1_sfc_thetae_021.txt.gz
Theta_e
314 316 318 318 319 318 318 320 320 320 316 314 313 313 313 313 312 313 312 312 311 309 308 308 308 306 306 306 305 306 306 306
312 313 314 315 313 314 313 313 311 311 310 308 308 308 309 310 311 311 312 311 310 308 307 306 306 304 304 304 303 303 303 305
311 312 311 310 309 310 310 310 310 310 309 308 309 308 309 309 310 310 311 308 307 306 304 303 304 303 303 302 301 300 300 302
310 310 308 308 308 308 309 310 310 309 309 309 308 308 307 307 307 307 306 306 304 303 303 302 302 302 301 300 300 300 299 300
310 309 308 308 308 309 309 309 309 310 309 307 306 304 303 305 304 304 303 303 302 302 301 301 301 300 299 300 302 299 297 295
306 307 308 309 309 308 309 309 309 309 309 307 305 304 304 304 303 301 300 300 301 301 301 300 300 300 299 299 298 299 298 297
306 308 309 308 308 308 308 308 308 309 309 307 305 303 302 300 299 297 297 298 298 299 300 299 299 297 297 297 298 296 295 295
304 305 308 309 305 306 307 307 306 307 307 306 304 301 300 298 296 295 295 295 295 296 297 298 297 297 296 295 295 296 295 293
304 304 304 305 306 305 306 306 305 306 305 303 302 301 300 298 297 296 295 295 295 295 296 296 298 297 296 295 294 294 293 292
305 304 304 304 304 305 304 304 303 304 302 301 300 300 299 297 296 295 295 294 296 295 294 295 298 297 295 294 293 291 291 291
303 303 304 304 304 304 303 303 301 300 299 300 298 297 297 296 295 294 294 293 294 293 293 294 295 294 294 292 291 292 291 290
302 303 303 303 303 302 302 299 298 298 297 297 295 295 295 295 295 294 293 293 293 293 294 293 292 292 292 291 291 291 291 290
301 302 301 301 300 300 299 297 297 297 296 296 295 295 295 294 293 293 293 292 292 292 291 289 289 288 288 288 288 286 285 284
300 299 299 298 298 297 296 296 297 296 296 294 293 293 294 292 292 293 293 292 291 289 288 288 288 288 287 286 286 285 284 284
298 297 298 297 297 296 295 296 297 296 295 294 294 293 294 292 292 292 292 291 289 287 288 288 288 288 286 285 284 283 282 283
298 297 296 296 295 295 295 295 296 296 296 295 294 295 295 292 293 294 293 291 289 288 287 287 287 286 285 282 282 281 280 280
297 297 296 296 294 293 294 293 294 296 295 295 296 295 294 294 293 293 292 290 287 286 286 286 285 286 285 285 282 279 280 280
296 296 296 294 292 293 291 291 292 292 292 293 294 294 294 294 294 293 291 287 285 285 285 285 284 283 286 285 284 281 279 278
297 297 295 292 292 291 291 291 290 290 290 292 293 293 292 292 292 291 288 286 285 284 284 283 282 284 286 286 286 280 278 279

GFSFLT1_sfc_thetae_024.txt.gz
Theta_e
313 314 315 316 319 323 321 320 320 320 313 310 311 310 310 310 310 309 309 309 308 306 306 304 305 304 303 302 301 302 301 300
310 310 311 310 311 311 312 311 309 309 309 308 307 306 307 308 309 308 306 306 306 304 302 302 302 301 301 301 301 299 299 300
308 308 308 308 307 309 308 309 308 307 307 306 307 306 307 306 306 305 304 304 303 303 300 300 300 299 299 298 298 297 298 299
306 307 307 307 305 307 307 307 307 307 307 306 306 305 305 304 302 301 302 303 302 300 300 299 298 298 298 297 298 297 296 297
307 306 305 305 305 306 306 307 307 308 307 306 304 302 301 301 300 298 298 300 300 299 300 299 299 299 297 297 299 299 299 295
305 306 306 306 306 306 306 307 307 307 306 305 304 302 301 300 298 297 298 298 299 299 299 298 297 296 295 295 294 293 294 292
305 306 307 306 305 305 304 305 306 306 305 303 301 299 298 296 295 295 295 296 296 296 297 297 296 295 294 293 293 292 292 292
303 305 305 305 303 304 304 304 304 305 303 301 300 299 297 295 295 294 293 294 293 293 294 295 295 295 295 296 294 293 291 290
302 302 302 303 303 303 303 303 303 303 301 300 299 299 297 296 295 294 294 293 293 293 293 295 295 296 295 293 292 290 290 289
301 302 301 302 302 302 301 303 301 300 302 299 297 298 297 296 294 293 293 293 295 293 292 293 294 294 293 292 290 289 289 289
301 301 302 302 302 301 300 300 298 298 297 297 296 295 295 295 293 293 293 292 293 292 291 292 292 292 292 291 289 289 289 288
301 301 301 301 299 298 297 296 296 296 296 295 294 294 294 294 293 293 293 292 292 291 292 291 288 288 288 287 287 287 286 284
299 299 298 297 296 295 296 295 295 296 295 295 293 293 293 293 292 293 292 291 292 292 292 288 288 286 286 285 284 284 283 282
297 296 297 296 296 295 294 294 294 295 295 293 292 292 292 292 291 291 292 292 291 292 289 288 288 287 286 284 284 283 281 281
296 295 295 295 294 294 293 293 293 294 294 293 292 292 293 291 290 292 293 294 292 291 288 288 288 286 285 284 283 281 280 281
296 295 294 294 293 293 292 292 292 293 292 292 292 293 293 291 291 292 293 292 292 291 289 288 286 284 284 281 281 281 280 280
294 294 295 295 293 290 291 290 291 291 290 291 293 292 292 292 292 292 290 292 291 287 287 286 284 285 286 285 283 280 280 279
295 295 295 294 289 290 289 289 290 289 290 292 292 291 291 291 291 291 291 287 287 287 285 284 282 282 286 287 287 282 280 278
294 292 290 289 288 288 288 288 288 289 290 290 291 291 290 290 288 289 288 286 286 284 283 282 281 283 285 285 284 280 278 279

GFSFLT1_sfc_thetae_027.txt.gz
Theta_e
309 310 316 319 318 318 319 321 321 316 311 309 309 309 307 308 305 304 304 303 303 302 302 302 302 300 300 299 298 299 298 297
308 309 310 311 311 311 312 312 310 311 309 309 306 305 304 304 303 303 302 303 303 301 300 299 299 298 298 298 297 297 297 298
306 307 307 308 309 310 307 307 307 306 306 306 305 304 303 302 301 300 302 301 300 300 299 298 298 298 298 297 296 296 297 296
305 307 307 307 305 305 306 305 306 306 306 305 304 304 303 300 298 298 299 299 299 299 299 298 297 297 296 295 295 294 293 295
307 306 304 303 303 304 305 306 305 306 305 304 303 301 300 299 297 296 297 298 298 298 298 298 296 296 294 294 295 293 292 290
304 304 304 305 304 303 304 305 305 305 304 304 302 300 300 298 297 296 296 296 297 297 297 296 295 294 293 293 292 291 292 291
304 304 305 305 304 302 302 304 304 304 303 302 301 298 297 295 295 294 294 294 294 294 295 295 294 294 293 292 292 291 290 289
303 305 305 305 303 301 302 303 303 303 301 300 299 297 296 295 295 293 292 293 292 292 293 294 293 293 293 293 291 290 289 288
303 302 301 301 302 301 300 302 301 301 300 299 298 298 296 296 295 293 292 293 292 292 291 294 294 294 293 292 290 289 288 288
299 300 300 300 300 300 299 299 299 299 298 297 297 297 296 295 294 293 292 292 293 292 291 292 292 294 292 291 289 288 287 287
299 299 300 300 301 299 298 298 298 297 297 296 295 294 295 294 293 292 292 292 292 292 291 291 292 292 291 290 287 287 286 286
298 298 299 299 297 295 295 295 296 295 295 294 293 293 292 293 292 292 292 291 291 292 293 292 290 288 288 286 286 285 284 282
297 299 298 297 295 294 294 294 293 294 294 293 292 291 291 291 291 292 291 291 292 291 291 292 291 288 287 286 285 284 282 281
295 295 295 295 294 294 293 292 291 293 293 291 291 291 291 290 290 291 291 291 290 291 291 292 288 288 287 285 284 282 281 281
294 294 293 294 294 292 290 291 291 291 290 290 290 290 291 290 290 289 290 291 290 289 291 288 289 288 286 283 282 281 281 281
294 293 294 293 292 289 289 289 290 290 290 290 290 291 291 291 291 291 291 290 290 292 290 288 287 286 284 282 282 281 280 280
294 293 294 293 289 288 289 288 289 289 289 290 291 290 290 289 289 289 289 292 289 288 288 286 283 284 286 286 285 281 281 280
293 293 292 288 287 288 287 287 288 287 289 290 290 290 289 289 288 288 288 287 286 285 284 282 281 282 286 285 284 281 280 279
291 288 288 287 287 287 287 286 286 288 288 288 289 288 288 288 287 288 288 287 283 282 281 281 280 282 284 283 282 278 277 277

GFSFLT1_sfc_thetae_030.txt.gz
Theta_e
307 313 317 317 319 321 322 318 316 314 313 311 308 305 303 302 301 301 301 303 304 303 302 299 300 299 299 298 297 298 297 297
306 308 310 311 313 317 318 314 314 314 311 306 303 302 300 300 300 301 303 302 301 299 299 299 298 297 297 297 296 296 296 296
306 306 307 309 312 314 314 312 312 308 306 304 303 301 299 298 298 299 299 299 300 299 298 297 296 295 294 295 294 293 294 294
305 307 308 309 308 305 305 305 305 305 305 304 302 301 300 297 296 296 297 299 299 298 297 296 295 295 294 293 292 291 290 292
305 305 303 302 301 303 303 304 304 304 304 302 301 299 298 297 296 295 296 297 297 297 297 296 295 294 293 293 294 292 291 289
303 302 302 302 302 303 302 304 304 304 303 302 301 298 297 296 295 295 295 295 296 296 296 295 294 294 293 292 291 291 291 289
303 303 303 302 302 303 304 305 303 303 303 302 300 297 296 295 295 294 293 294 294 294 294 294 293 293 292 292 291 290 289 288
301 302 303 304 303 302 303 302 301 301 300 299 298 297 296 296 295 294 292 292 292 292 291 293 293 293 292 292 291 289 288 287
302 303 301 301 301 300 301 301 301 300 299 298 298 297 296 295 294 293 292 291 292 292 291 291 292 293 292 293 290 289 289 288
300 300 299 299 298 298 299 299 299 298 298 297 296 296 295 294 294 292 292 292 293 292 291 290 291 292 294 293 291 289 287 287
298 298 298 298 297 296 298 298 297 298 296 295 294 293 292 292 292 292 292 291 291 291 291 292 292 291 290 291 290 289 287 286
296 296 296 296 295 295 294 294 295 294 293 293 292 291 291 290 290 291 291 291 291 291 291 290 289 289 290 287 287 286 285 283
295 296 295 294 294 294 293 293 293 291 292 291 290 290 290 290 289 289 290 290 290 290 290 289 290 291 289 286 285 285 282 281
294 294 294 295 292 293 293 291 290 290 290 289 289 289 289 288 288 288 289 289 289 289 289 291 291 288 286 287 284 282 281 281
293 293 294 292 292 292 289 290 290 289 289 289 289 289 289 288 288 288 289 289 289 288 291 290 289 287 287 284 282 281 281 281
293 292 292 294 292 289 289 288 288 288 288 288 289 289 289 288 288 288 288 288 289 289 289 288 285 284 283 282 282 282 281 280
293 293 294 293 289 287 287 287 287 288 287 288 289 289 289 288 287 287 287 288 289 288 286 284 281 283 286 286 284 280 280 280
294 294 292 288 286 287 286 286 287 286 288 289 288 288 288 287 287 286 286 286 283 283 282 281 280 281 285 284 283 280 278 277
292 288 287 287 286 285 285 285 285 287 287 287 287 286 286 286 285 288 285 285 286 281 280 280 280 281 282 282 282 278 276 277

GFSFLT1_sfc_thetae_036.txt.gz
Theta_e
320 325 325 327 331 331 330 331 328 321 317 319 313 312 312 312 312 312 313 314 315 314 311 310 309 307 306 306 305 305 304 304
323 327 328 330 330 329 329 326 319 320 317 316 313 310 311 313 314 314 315 314 312 311 309 309 308 306 305 305 304 303 302 304
322 326 327 327 328 330 328 327 326 324 323 320 319 317 316 315 314 314 314 312 310 308 308 307 307 305 305 305 305 302 302 302
322 325 328 327 326 328 328 330 328 325 321 319 318 316 314 313 313 313 312 311 310 310 309 307 307 307 304 305 304 303 299 301
324 323 325 327 328 330 328 326 324 321 320 318 316 316 313 315 314 314 312 311 310 308 307 308 307 307 306 305 303 303 301 298
318 318 320 322 325 325 323 321 319 319 318 319 318 315 315 314 314 310 311 312 310 308 308 308 307 306 306 305 304 303 301 298
315 315 316 316 318 319 318 317 316 317 318 317 317 314 312 311 310 308 307 308 308 308 307 308 308 307 306 305 304 301 301 300
313 312 313 314 316 317 318 317 315 317 317 316 314 311 309 307 307 306 306 306 306 306 307 306 306 306 305 305 303 301 301 299
313 313 314 315 315 317 316 316 314 314 314 311 310 309 310 309 308 307 306 305 304 304 303 303 302 302 303 303 302 301 300 299
313 314 315 315 315 316 316 314 312 310 308 308 307 310 308 307 305 305 303 302 300 301 301 300 300 301 302 302 301 300 299 298
313 314 314 315 315 314 314 312 310 306 306 308 308 307 305 304 304 301 300 300 300 300 299 299 299 300 301 301 299 298 298 296
313 313 313 313 312 311 310 307 305 304 304 305 305 303 302 303 302 300 300 300 299 298 298 298 298 298 298 297 296 296 295 293
312 312 311 309 308 307 306 304 302 302 303 302 301 301 301 301 299 299 299 298 298 298 298 297 297 295 296 295 294 294 292 291
310 309 308 306 305 304 301 300 300 302 301 300 300 300 300 299 298 299 298 297 297 297 297 294 294 295 294 293 292 292 292 291
307 307 306 305 303 300 300 301 301 300 299 299 299 299 299 299 298 298 297 297 296 296 296 295 294 294 293 292 291 291 291 290
306 306 305 303 302 302 302 301 300 299 297 297 297 299 298 297 297 296 296 296 296 296 294 294 294 292 291 291 291 290 290 288
305 305 304 303 302 301 300 299 298 298 297 296 297 297 296 296 296 295 295 295 295 295 294 293 292 291 285 284 285 288 288 286
305 304 303 302 302 299 298 297 297 296 296 295 296 295 295 294 294 294 294 294 295 293 292 293 291 291 283 283 282 286 286 285
305 304 302 302 299 298 297 296 295 295 294 294 294 294 293 293 293 293 293 294 293 292 291 291 291 289 282 281 281 286 286 285

GFSFLT1_sfc_thetae_039.txt.gz
Theta_e
321 324 324 325 331 332 332 330 330 327 325 323 317 315 315 317 315 314 315 316 317 316 313 313 311 310 308 307 306 306 305 304
324 327 327 327 333 331 329 328 328 326 322 320 316 315 313 314 314 317 317 317 314 313 312 311 310 308 307 308 306 305 304 305
323 327 328 329 331 330 330 329 327 329 322 324 323 319 317 318 317 318 318 315 313 311 311 309 309 307 307 307 306 304 303 303
323 326 328 329 328 328 330 329 330 328 328 323 321 320 319 316 316 316 315 313 312 311 310 309 308 308 306 306 306 304 300 302
324 326 326 328 329 332 330 328 328 325 323 320 318 315 314 316 316 316 315 313 311 310 308 309 309 308 307 306 305 305 303 299
324 326 328 329 329 328 328 327 324 322 321 320 319 317 318 318 317 314 313 312 311 309 309 309 308 307 307 307 307 305 303 300
322 324 324 323 326 326 324 322 320 321 320 320 319 317 314 312 313 310 309 308 308 309 308 308 308 306 306 306 306 303 302 302
318 318 318 319 321 321 320 319 317 319 319 319 317 315 312 309 309 308 306 306 306 307 307 305 303 303 302 303 303 304 302 301
316 316 316 317 318 319 319 318 316 318 317 316 314 311 309 309 308 307 306 305 304 304 303 302 301 301 301 302 302 303 302 301
315 315 316 317 318 319 319 317 316 315 314 312 310 310 308 307 306 306 304 304 302 301 301 300 300 300 300 300 300 301 301 300
315 316 317 318 318 319 320 318 314 312 311 310 308 308 307 305 305 303 302 302 301 300 299 299 299 299 299 299 299 299 298 298
315 316 317 318 318 318 317 314 311 310 308 307 308 306 304 303 303 302 300 301 300 298 298 299 298 298 299 298 298 297 295 295
316 316 317 317 316 315 313 310 308 307 305 304 305 304 303 302 301 300 300 299 299 298 298 298 298 297 297 295 294 293 293 292
316 316 315 314 313 312 310 308 306 304 303 304 303 302 302 301 299 299 300 299 298 298 297 297 296 295 294 294 294 293 292 291
315 314 314 313 312 310 308 305 304 303 303 302 301 301 301 300 299 299 299 298 297 297 297 296 295 294 294 293 292 291 291 291
312 312 312 312 309 308 305 305 304 303 302 300 300 300 300 299 298 298 298 297 297 297 296 295 294 294 292 291 291 290 289 289
311 311 311 309 307 306 306 304 303 302 300 299 299 298 298 298 297 297 296 296 296 296 295 294 293 292 285 284 285 288 288 288
310 310 310 309 307 306 304 302 301 299 298 297 296 297 296 296 296 295 295 295 295 295 293 292 292 292 285 283 283 286 287 287
310 310 310 309 308 304 301 301 299 298 297 295 296 296 295 295 295 294 295 295 294 294 293 292 291 291 284 283 282 285 287 287

GFSFLT1_sfc_thetae_042.txt.gz
Theta_e
318 320 324 328 330 330 329 326 325 324 323 322 321 319 318 317 314 314 315 315 316 314 311 310 309 306 305 304 303 303 302 301
320 322 324 327 331 328 328 325 325 323 321 318 317 315 314 314 313 314 316 316 313 310 310 308 307 305 304 304 302 301 300 301
321 323 325 328 329 330 327 326 325 325 323 321 320 317 314 314 314 316 317 314 311 310 308 307 306 304 304 304 302 300 299 300
320 323 325 328 329 328 327 326 325 326 322 324 322 318 316 315 314 314 314 313 311 309 308 306 305 304 302 303 302 301 297 298
321 323 325 328 329 328 329 328 327 327 326 320 317 314 312 313 313 314 312 312 311 309 307 306 305 305 303 303 302 301 299 295
320 323 326 326 327 328 329 328 325 324 321 320 317 316 315 314 314 313 312 312 311 309 308 306 305 304 303 302 302 300 299 297
322 325 327 325 328 328 327 324 322 320 320 320 318 317 314 312 312 310 310 308 306 307 307 305 303 302 300 299 299 297 297 297
322 322 323 323 323 325 324 321 318 319 319 319 318 315 312 308 308 307 305 304 304 303 302 300 300 299 299 298 297 297 297 296
319 321 320 320 322 321 320 318 316 317 319 317 316 312 309 308 309 306 303 302 301 301 300 299 299 298 297 297 296 296 296 296
317 318 318 318 318 319 318 317 316 317 316 313 311 309 308 306 304 304 302 301 300 299 299 297 297 297 297 297 295 295 295 295
316 315 316 316 318 318 320 318 315 315 312 310 309 308 306 305 304 303 300 299 299 298 297 296 297 297 297 296 295 295 293 293
315 314 316 317 318 318 318 317 313 311 310 309 307 305 304 303 302 300 299 298 298 297 296 296 296 295 295 293 293 293 292 291
315 315 316 316 316 317 316 315 311 310 308 306 305 304 303 302 301 299 298 297 298 296 296 296 296 294 293 292 292 292 290 289
315 315 315 315 315 315 314 312 309 307 304 303 303 303 301 301 299 298 298 297 296 296 296 295 294 294 292 292 291 291 290 289
314 314 314 315 315 313 312 309 307 305 304 303 301 302 301 299 298 297 297 297 296 295 296 296 294 293 293 293 292 289 288 287
312 314 314 314 313 312 309 307 305 305 303 301 300 301 300 299 298 297 297 296 296 296 295 295 293 293 292 289 288 286 286 285
312 314 314 313 312 309 308 305 305 304 301 300 300 299 299 297 296 297 296 296 295 295 294 293 291 292 286 286 285 283 285 284
311 312 312 312 310 308 305 305 304 301 299 299 298 298 297 296 296 295 294 294 294 293 293 292 291 291 286 285 283 283 283 283
310 311 312 312 309 307 306 303 300 298 298 297 297 296 295 295 294 294 294 294 293 292 291 291 290 291 286 285 283 281 282 283

GFSFLT1_sfc_thetae_045.txt.gz
Theta_e
318 319 321 322 325 324 322 321 319 318 317 317 315 314 313 313 310 309 310 311 311 307 306 304 304 302 300 300 299 299 298 297
317 318 322 324 325 323 321 319 319 319 315 313 311 309 309 308 308 310 311 311 308 307 305 304 302 301 299 300 299 297 297 297
313 313 323 324 323 322 321 319 319 319 317 314 313 309 308 308 308 309 311 310 307 305 303 302 301 300 300 299 298 296 296 296
314 316 323 323 323 322 321 321 320 321 320 316 314 310 308 307 307 308 308 308 307 305 304 302 301 300 299 298 298 297 294 295
316 316 320 323 322 323 323 323 321 322 321 317 312 308 307 307 308 308 306 307 306 305 303 302 301 300 299 298 300 296 296 293
316 317 321 324 323 323 323 323 322 322 322 317 313 308 308 309 309 308 307 308 307 305 303 301 300 299 297 296 294 294 294 293
317 320 323 324 324 324 323 323 322 320 317 313 311 310 309 309 310 309 308 307 304 301 300 297 297 296 295 294 294 293 293 293
317 320 320 321 321 322 322 322 317 315 312 311 311 307 306 305 306 305 303 300 298 298 296 296 295 295 294 294 293 292 292 291
318 320 319 320 321 320 320 317 316 314 312 311 308 305 303 303 303 302 301 300 299 296 296 295 294 294 294 293 293 292 292 291
314 316 317 317 315 314 314 314 312 312 311 307 304 303 303 301 301 302 300 299 298 297 296 293 293 294 294 293 292 291 291 291
312 312 313 313 313 313 312 311 310 310 306 305 303 303 301 302 300 300 299 298 297 296 293 293 293 293 293 291 291 291 290 289
309 309 312 312 312 312 312 310 310 307 305 303 302 300 302 303 301 299 298 296 296 294 293 293 293 293 292 290 290 290 289 288
309 308 310 310 311 312 311 308 308 306 305 303 302 303 303 301 300 297 297 296 295 293 294 293 294 292 290 290 290 290 289 288
309 308 310 310 311 314 313 309 307 304 303 303 304 303 302 299 299 298 295 294 293 293 294 293 293 291 290 290 290 289 288 287
309 309 310 312 313 313 312 306 304 303 302 302 301 301 300 298 296 296 294 294 293 294 293 294 294 292 291 292 290 287 286 285
307 308 308 309 310 309 308 305 303 303 302 301 300 301 298 297 296 295 295 294 294 294 293 293 292 291 291 288 287 285 284 283
307 309 310 309 309 305 305 302 302 303 301 299 298 298 296 296 295 295 294 294 293 293 292 292 291 291 288 288 286 283 283 282
306 307 308 308 307 305 302 302 303 301 298 297 297 297 296 295 294 293 292 291 291 291 291 291 290 288 288 287 285 282 281 281
304 305 305 304 304 302 302 300 298 297 295 295 294 294 294 293 292 292 291 292 291 290 289 290 289 290 287 287 285 281 281 281

GFSFLT1_sfc_thetae_048.txt.gz
Theta_e
321 318 320 320 320 324 322 320 319 317 316 314 312 312 312 311 309 309 310 310 309 305 304 302 301 300 299 298 297 297 296 296
317 317 318 318 322 322 320 318 316 316 314 311 310 309 309 308 308 309 310 309 308 305 303 301 300 299 298 299 297 296 295 295
315 316 317 321 321 321 319 318 317 316 315 312 312 309 308 307 307 308 309 306 305 304 302 300 300 299 298 297 296 295 295 295
313 316 319 320 319 319 318 318 317 317 316 313 309 307 306 304 304 305 308 306 305 304 302 300 300 299 297 296 296 295 293 293
313 317 319 320 320 320 319 318 318 318 317 313 309 306 305 305 305 306 306 305 305 304 302 300 300 299 297 297 296 293 293 290
314 319 320 321 321 320 320 319 318 319 318 315 311 306 306 306 306 306 304 304 304 302 301 299 297 296 295 294 292 291 291 290
313 320 321 321 321 320 320 320 319 320 319 315 312 308 306 306 305 304 303 302 301 300 298 296 295 295 294 293 291 291 290 290
312 318 320 320 320 320 320 320 320 320 318 315 311 308 307 307 307 305 300 299 299 298 297 295 295 295 293 292 291 290 290 289
314 318 320 320 321 321 321 320 319 317 314 311 308 306 305 305 304 303 301 299 298 297 297 296 295 294 292 292 291 291 290 289
315 317 319 320 320 320 320 321 317 313 312 309 304 302 302 301 301 301 300 299 298 296 294 294 294 292 293 291 290 289 289 288
314 316 316 318 317 315 312 314 312 312 309 307 305 305 304 302 301 300 299 298 296 296 295 294 292 292 293 291 290 289 288 287
312 313 314 315 314 310 309 310 311 308 305 305 303 302 304 304 301 300 297 298 297 295 293 292 292 292 292 290 289 289 288 287
311 312 312 312 312 311 309 308 306 304 303 302 302 303 304 302 300 299 299 297 296 294 294 293 293 292 290 289 289 289 288 287
309 310 311 312 312 311 309 308 306 304 303 302 303 304 302 301 299 298 298 295 293 292 293 292 292 292 290 289 289 289 288 286
308 308 310 311 311 312 310 307 306 304 303 302 303 303 301 298 298 294 293 293 292 291 292 293 292 292 291 292 291 289 286 285
307 306 306 307 309 308 306 304 303 303 303 302 302 302 298 297 295 294 293 293 292 292 293 292 293 292 292 290 288 286 285 284
305 307 307 308 308 305 304 303 302 303 302 301 300 297 297 296 294 293 294 293 292 292 292 292 291 291 290 289 287 284 284 283
306 306 307 307 306 304 302 301 302 298 298 297 297 296 295 294 293 293 291 291 291 291 290 290 290 290 289 289 288 283 282 281
302 303 303 301 300 299 298 297 296 295 293 293 294 294 293 293 292 292 291 292 290 290 289 289 288 290 289 289 287 281 280 281

GFSFLT1_sfc_thetae_051.txt.gz
Theta_e
320 321 322 323 317 322 322 320 318 317 315 314 313 313 312 311 310 310 310 308 306 304 302 301 300 298 298 297 296 296 295 294
322 322 321 317 317 320 319 317 316 317 314 311 309 309 309 307 307 308 309 307 306 303 301 300 298 298 298 297 296 295 294 294
319 317 317 316 318 320 318 318 316 317 316 311 311 309 308 307 307 307 308 307 305 303 300 299 298 298 297 296 295 294 294 293
316 314 315 315 318 319 319 318 317 316 315 311 307 306 305 304 304 305 307 305 305 303 301 299 298 298 296 295 295 294 291 292
314 313 313 316 318 320 320 319 317 316 315 311 308 306 304 304 304 304 306 305 303 302 300 299 298 298 296 295 294 292 293 289
312 313 314 317 318 318 318 318 317 317 315 313 309 306 305 304 304 304 304 302 302 301 300 299 297 296 293 292 292 291 291 289
312 314 316 318 318 318 317 317 317 318 316 314 310 307 305 304 303 303 301 300 299 299 298 297 297 296 293 291 291 290 289 288
309 313 316 318 318 318 319 317 317 317 317 315 312 308 306 305 304 304 299 297 295 296 297 297 296 295 294 292 291 290 290 288
311 316 318 318 319 319 320 318 318 317 317 316 313 309 307 306 305 302 299 298 297 296 298 297 296 295 295 294 291 289 288 288
312 316 318 318 319 320 320 319 319 318 317 316 308 307 305 302 301 301 299 298 298 297 296 295 295 295 294 290 289 288 288 288
310 316 318 319 319 320 319 320 319 316 312 308 305 303 303 302 302 300 298 298 296 296 296 296 294 294 292 290 288 288 288 287
312 314 317 319 319 319 318 318 315 308 307 304 303 303 302 302 300 298 297 297 297 298 296 294 293 292 291 289 288 288 288 288
313 314 315 315 316 316 316 314 312 308 307 305 303 303 301 299 298 297 299 299 298 296 295 293 293 291 290 290 289 288 287 287
310 311 312 313 314 314 311 308 307 305 304 303 301 301 300 298 299 300 299 296 296 294 293 292 291 291 291 289 288 288 287 287
306 308 310 312 312 310 308 307 306 304 303 302 301 302 301 301 300 298 295 293 293 292 292 292 292 292 291 290 290 289 288 287
306 305 307 308 308 308 305 304 304 303 303 303 302 302 300 298 296 293 293 294 293 293 292 292 291 291 291 289 289 286 285 284
305 305 306 306 307 304 303 302 303 304 303 303 299 297 296 296 295 294 293 293 293 292 292 291 290 290 290 290 288 284 284 282
304 303 304 305 303 302 300 301 303 300 298 297 297 296 295 294 293 292 292 292 292 291 290 290 289 288 290 290 289 283 282 281
297 300 299 299 298 298 297 296 295 295 295 294 293 293 292 293 293 293 293 293 290 289 288 288 287 288 289 290 288 283 281 281

GFSFLT1_sfc_thetae_054.txt.gz
Theta_e
318 317 317 321 318 319 319 319 317 315 313 313 313 313 313 313 311 310 309 308 306 304 302 300 300 298 297 297 296 295 295 294
318 318 318 319 315 319 319 316 315 315 315 313 310 310 309 309 311 311 308 305 304 303 301 299 298 297 297 296 295 294 294 294
319 318 318 316 316 319 318 318 316 316 317 310 311 309 309 308 310 308 308 305 303 302 300 298 297 297 296 296 295 294 294 293
318 318 316 316 315 318 319 318 316 317 315 311 307 308 307 307 304 305 306 305 304 302 300 298 297 297 295 295 295 294 291 291
317 318 315 316 316 318 319 318 316 316 314 311 308 307 305 305 304 304 305 304 303 301 299 298 297 297 296 294 294 292 291 288
316 317 317 316 316 317 319 318 316 316 314 313 310 308 308 307 306 304 304 302 301 300 299 298 296 295 293 293 292 291 290 290
314 316 314 314 314 315 316 317 316 316 315 313 310 309 308 307 303 303 301 299 299 298 298 296 295 294 293 294 292 292 291 289
309 310 311 312 314 315 316 316 316 316 316 314 313 311 311 307 304 304 299 297 295 295 295 296 295 295 295 293 294 293 292 291
308 310 312 314 315 316 316 316 317 316 317 316 313 313 309 306 304 303 301 298 295 296 295 295 296 296 295 295 294 292 291 289
306 309 312 315 316 316 316 317 318 318 317 317 313 311 307 305 303 301 298 296 297 295 296 296 296 297 295 294 292 291 290 288
305 309 313 316 317 317 317 318 318 318 317 316 314 310 307 304 301 299 298 298 296 296 295 297 297 295 294 293 291 290 288 288
306 311 315 316 316 317 318 319 318 317 315 313 309 305 303 302 301 299 298 298 298 297 297 296 294 294 293 291 290 289 288 287
308 310 313 314 316 316 318 318 318 314 311 307 304 303 303 303 299 300 299 299 300 299 297 294 294 293 292 291 289 289 288 287
308 310 311 314 315 315 315 315 313 307 307 305 304 303 302 301 299 299 301 300 298 295 295 294 293 292 291 291 290 289 288 287
306 307 309 310 311 310 310 307 306 306 305 305 303 302 302 299 300 301 299 296 294 293 293 293 293 292 292 291 289 288 287 287
305 305 306 307 308 306 305 304 303 304 302 302 302 302 301 300 299 296 295 294 292 293 293 293 293 292 291 289 288 287 286 285
302 304 304 306 305 304 302 301 301 303 302 301 301 300 298 295 294 294 294 293 293 293 293 292 291 291 290 291 289 285 285 283
300 301 302 303 301 300 299 300 301 299 298 298 297 296 295 294 293 292 292 293 294 292 292 290 289 288 289 290 290 285 284 283
292 295 295 295 296 295 295 295 295 294 294 293 293 293 292 293 294 294 294 294 293 291 288 287 286 287 289 289 289 285 283 282

GFSFLT1_sfc_thetae_057.txt.gz
Theta_e
321 322 324 325 325 327 329 329 328 326 326 325 326 327 328 327 325 323 321 320 316 314 311 308 310 307 308 308 307 307 306 307
321 322 323 325 326 326 327 327 326 324 322 320 320 321 323 323 321 321 319 317 314 313 309 308 309 308 308 308 306 306 305 306
320 321 322 322 324 325 325 326 325 324 324 323 323 322 322 323 321 319 318 315 314 312 308 309 308 307 307 307 307 305 305 304
320 320 321 323 322 324 324 325 325 324 324 321 319 319 318 317 317 318 316 314 312 310 309 309 308 308 307 307 306 305 302 302
321 322 321 322 322 325 325 325 325 324 322 321 319 319 319 318 317 317 316 311 309 308 309 308 308 307 306 306 304 303 301 297
320 322 324 324 324 323 325 325 324 324 322 322 321 320 322 316 315 315 314 313 311 308 308 307 307 307 305 304 302 301 300 297
320 323 325 323 323 323 324 324 323 323 322 321 320 320 317 313 313 312 312 311 309 309 307 307 307 305 303 300 299 297 296 299
317 320 321 322 320 322 323 323 323 323 322 320 318 317 317 315 314 310 311 309 307 307 307 305 303 302 301 298 296 296 296 297
316 318 321 321 320 321 322 322 323 322 321 320 317 316 317 317 313 310 310 310 308 306 304 303 301 300 298 297 296 295 296 299
314 316 319 320 319 321 322 322 322 322 321 322 318 317 317 315 310 311 312 311 305 302 301 301 301 300 298 296 296 294 295 297
310 313 316 318 320 322 322 323 322 323 322 321 320 318 318 315 312 311 308 305 302 300 301 301 300 299 299 298 295 294 294 296
309 311 315 318 321 321 321 321 322 322 322 321 320 319 318 314 310 307 304 300 300 299 300 300 300 297 296 295 294 294 295 296
312 312 316 319 320 321 321 322 322 322 321 319 319 317 313 310 306 303 301 299 300 301 301 298 296 295 294 293 294 295 295 294
313 314 316 318 320 321 321 320 320 320 317 316 312 310 308 306 303 301 301 301 301 301 297 296 297 296 296 297 297 296 295 295
313 314 315 317 318 319 318 318 317 313 310 309 307 306 305 304 303 301 301 302 299 297 296 295 296 295 295 297 296 296 296 295
308 311 314 316 316 315 314 311 309 308 307 306 304 304 302 302 302 301 297 297 296 296 296 295 295 295 295 295 296 296 295 295
306 307 310 312 311 310 307 307 307 309 307 304 302 301 300 298 297 296 296 296 295 294 294 294 294 294 292 291 292 296 295 293
302 302 304 306 306 305 304 305 305 304 303 301 298 297 296 296 294 294 293 293 297 296 294 294 293 296 291 291 290 294 294 294
297 299 299 300 301 301 300 300 299 298 296 295 295 294 293 296 296 296 296 296 295 296 294 295 294 293 289 289 289 294 294 293

GFSFLT1_sfc_thetae_060.txt.gz
Theta_e
325 326 326 324 324 326 327 327 329 334 333 331 328 328 328 331 332 334 335 332 329 327 323 319 317 315 315 314 313 312 313 313
326 326 328 327 326 327 328 329 331 333 331 326 324 324 326 329 331 333 331 330 328 326 322 317 316 315 314 315 313 312 310 313
324 326 326 328 326 327 328 330 333 332 330 327 325 325 327 328 331 331 331 328 327 324 321 317 314 316 315 314 313 311 312 311
323 324 326 327 327 328 328 330 332 332 332 328 326 326 327 327 327 327 328 326 324 322 318 315 314 316 314 314 313 311 309 308
323 325 326 327 328 329 329 330 331 331 333 328 325 322 320 325 327 328 328 325 323 320 315 314 315 314 314 314 313 312 309 305
322 325 326 328 329 330 330 329 330 332 331 330 327 324 323 326 328 326 325 322 318 315 315 313 313 314 315 313 311 309 303 299
323 324 328 329 331 331 331 330 330 331 331 331 330 328 326 325 324 323 323 322 319 316 312 312 313 314 314 312 310 304 301 298
323 323 325 328 330 331 331 331 329 331 332 331 331 330 328 324 322 323 321 318 315 312 311 311 313 314 312 308 303 302 299 298
323 324 325 327 329 330 331 329 329 330 331 330 330 329 327 323 321 323 322 315 310 312 311 313 313 311 304 303 299 303 302 298
321 324 326 328 329 330 330 329 328 329 330 330 328 327 324 320 322 322 320 314 312 312 314 312 304 302 305 300 301 300 298 298
317 320 324 327 329 330 332 331 330 331 331 329 325 324 324 323 321 321 317 313 315 313 309 301 304 303 303 300 298 297 296 296
315 318 320 323 327 328 328 329 329 329 329 329 324 323 323 323 321 317 314 313 311 309 302 302 301 302 299 297 297 295 294 297
318 318 319 321 323 325 326 327 327 327 328 327 323 323 321 321 318 313 311 307 303 302 301 302 301 298 296 295 295 296 298 298
318 319 320 321 323 324 325 326 326 327 325 322 320 319 317 313 308 304 302 301 300 300 302 300 296 296 295 295 297 299 300 299
317 319 321 323 324 325 324 323 322 319 317 314 310 309 307 304 303 302 301 302 301 302 298 297 296 296 297 298 298 299 300 299
312 318 321 323 324 324 320 315 312 311 309 308 307 306 305 303 302 301 302 302 299 299 297 296 297 297 297 298 298 299 299 298
312 315 319 318 319 318 317 315 314 312 308 305 303 303 302 301 301 302 303 301 299 297 296 295 295 295 293 292 293 299 298 297
310 312 314 314 314 314 313 312 312 310 306 304 304 305 304 303 302 298 295 296 295 295 295 296 296 297 293 293 291 296 297 297
308 309 310 310 311 310 310 309 307 305 303 303 302 301 299 298 299 298 297 297 296 297 298 296 298 299 291 290 289 295 295 295

GFSFLT1_sfc_thetae_063.txt.gz
Theta_e
323 323 324 323 324 325 324 324 326 327 329 328 326 326 325 326 327 329 333 334 332 330 327 326 322 320 318 318 318 316 314 313
324 325 324 324 325 324 324 324 326 328 327 324 322 322 324 325 328 331 333 333 332 331 329 326 322 320 319 320 318 315 313 314
322 324 323 324 323 324 325 324 325 328 328 327 324 323 323 325 327 331 333 332 331 329 329 325 322 320 320 319 318 314 314 314
322 322 324 324 324 325 326 327 328 329 329 328 324 324 324 324 325 327 332 332 330 329 329 324 322 320 318 319 317 315 311 312
323 324 325 327 326 327 327 328 329 330 331 328 325 320 318 322 324 327 328 329 328 327 326 324 321 319 318 316 317 317 315 310
321 324 326 328 329 329 330 328 328 330 330 330 327 324 323 324 325 327 328 329 328 326 324 320 319 318 318 316 317 315 314 311
320 323 326 327 329 331 331 329 329 330 331 331 331 328 327 323 324 327 327 327 325 324 321 319 319 316 315 314 317 315 308 304
321 320 323 326 327 329 331 330 328 330 331 331 331 331 330 328 326 326 325 325 322 322 320 317 315 313 312 313 314 310 302 301
321 323 322 325 327 329 330 330 329 330 332 332 333 333 332 331 325 323 324 324 324 324 322 315 311 312 311 311 306 301 303 301
320 323 325 324 327 330 333 331 330 331 333 334 334 335 333 332 330 328 323 325 320 316 313 311 310 310 305 304 300 302 300 298
319 322 325 327 328 332 334 333 331 331 332 333 332 332 330 330 328 325 324 323 318 313 311 310 305 303 301 302 301 298 297 298
318 320 323 326 329 331 332 332 332 332 333 332 332 328 326 325 324 322 322 322 319 314 311 303 302 301 302 302 298 296 295 295
318 320 321 322 326 328 330 331 332 332 333 333 328 326 324 322 321 321 320 314 309 306 303 302 302 301 300 297 295 296 295 295
317 320 321 322 324 326 328 329 329 329 329 329 325 322 321 313 308 306 304 303 302 301 302 301 301 298 296 296 296 296 297 299
316 318 321 324 325 326 327 327 327 326 323 317 313 311 308 305 303 302 301 301 301 301 301 298 298 297 296 296 297 298 299 299
312 318 321 323 326 324 321 317 315 315 312 309 307 306 305 304 303 302 302 302 301 299 298 297 297 297 297 297 298 297 298 298
314 317 322 323 324 320 315 312 310 310 307 305 305 305 303 303 302 300 300 299 299 298 298 297 296 297 293 293 294 295 297 298
315 318 320 320 320 318 315 312 311 308 306 306 306 305 304 304 304 302 300 300 298 296 295 295 296 298 293 293 292 298 297 297
314 316 316 317 317 316 315 314 312 310 309 308 307 305 303 303 302 302 300 297 296 297 297 298 299 300 295 293 290 295 295 295

GFSFLT1_sfc_thetae_066.txt.gz
Theta_e
321 321 321 320 319 316 316 318 321 324 325 327 325 325 324 324 324 326 328 326 328 327 324 323 320 318 317 314 314 313 311 308
323 322 320 318 320 320 320 320 324 325 322 322 321 322 322 322 323 325 330 330 330 328 324 324 320 317 315 315 315 312 309 309
319 320 319 319 320 322 322 323 325 324 324 323 322 322 322 322 324 325 329 330 330 329 327 324 320 318 317 316 314 310 311 310
319 319 320 321 321 322 322 322 323 324 325 324 323 322 321 321 322 324 329 330 329 328 327 325 320 319 317 317 315 313 309 310
319 320 319 320 321 323 323 323 322 324 327 324 322 318 316 319 320 323 328 330 328 328 326 325 321 318 316 315 315 312 311 307
318 319 322 322 323 323 324 325 324 325 326 326 324 320 320 320 322 322 326 326 326 326 325 323 317 316 315 316 313 312 311 308
320 322 323 324 325 325 325 325 325 326 327 327 326 323 321 319 320 321 325 325 325 325 323 318 317 315 314 315 313 311 308 302
318 321 323 324 325 326 326 326 324 326 328 328 326 328 324 323 321 322 324 323 321 320 320 316 315 315 314 313 311 307 302 299
318 318 323 324 325 327 327 327 325 326 327 329 329 328 329 326 326 325 323 322 322 321 319 317 315 313 312 310 305 301 301 302
319 320 321 324 325 326 328 327 327 327 327 328 328 330 328 328 328 326 323 323 323 321 319 314 310 310 309 304 301 300 300 298
317 320 322 323 326 327 329 329 328 329 329 329 329 330 331 330 328 325 324 323 317 315 311 310 309 305 302 301 301 299 298 297
317 319 323 324 325 327 329 329 329 329 329 329 329 331 328 326 323 322 322 320 318 314 312 307 303 300 301 300 298 296 295 295
317 319 321 322 325 326 329 330 330 330 331 329 329 328 325 322 319 318 318 314 313 309 306 302 301 301 301 297 296 296 295 294
316 318 319 320 323 326 327 328 328 329 327 327 326 322 319 311 308 307 306 305 304 303 302 301 301 299 297 297 296 296 296 296
313 316 319 321 324 325 326 325 324 321 320 315 310 308 306 304 303 304 302 302 302 301 301 299 297 297 297 297 297 297 297 299
313 315 319 322 323 320 319 317 316 314 310 307 305 306 304 303 302 302 302 301 301 299 298 297 297 297 297 297 297 298 297 297
314 316 320 323 319 314 312 310 309 309 305 304 304 303 303 302 302 300 299 298 298 297 296 296 296 297 294 294 295 296 295 295
314 317 322 319 316 313 310 307 307 306 305 304 304 304 302 301 301 299 298 297 298 297 296 296 295 296 293 293 292 295 294 293
316 319 319 317 315 313 311 310 308 307 306 306 305 304 303 302 301 301 299 297 295 295 295 296 297 298 294 293 291 292 291 291

GFSFLT1_sfc_thetae_069.txt.gz
Theta_e
315 314 314 315 316 317 317 319 318 318 319 315 318 316 318 319 320 323 323 323 324 323 321 318 316 315 313 312 310 311 307 304
317 315 315 315 315 314 314 315 316 317 315 314 318 315 315 316 318 323 323 322 324 321 320 318 315 314 313 311 310 309 307 306
317 315 315 314 311 312 313 314 315 318 319 319 316 317 316 316 317 319 324 323 324 323 320 319 315 314 313 310 310 308 308 307
315 313 313 313 310 311 312 314 317 320 319 318 316 316 316 316 315 318 324 326 326 325 323 321 317 316 314 311 310 309 308 309
316 313 311 313 314 315 316 317 319 320 319 318 316 316 315 316 316 317 324 326 326 326 325 323 319 317 315 313 315 314 310 307
314 313 314 314 316 318 318 319 319 320 320 319 317 315 315 315 315 317 323 325 325 325 324 321 318 317 315 315 314 312 311 309
315 316 317 317 318 318 318 318 318 319 320 320 321 318 314 313 315 316 321 324 324 323 324 322 318 315 314 312 312 312 308 305
315 315 315 316 316 317 318 319 318 319 319 320 320 320 317 314 314 316 320 321 323 322 321 316 315 313 311 312 311 308 304 302
314 315 317 316 317 318 318 318 320 320 320 321 321 321 320 319 317 318 321 322 321 318 315 313 312 311 310 310 307 302 302 300
314 317 317 319 318 319 320 319 320 321 322 323 322 322 322 320 320 320 322 321 318 317 316 312 310 309 308 306 303 301 301 300
312 314 319 320 321 322 322 322 321 321 322 322 324 323 323 323 322 319 319 320 317 315 314 312 310 307 304 303 300 300 299 298
309 311 316 321 322 322 323 323 323 323 323 323 323 322 323 322 321 321 321 319 316 313 312 310 306 303 302 301 299 298 297 296
310 311 313 316 320 322 323 324 324 325 325 324 323 321 322 321 321 322 318 316 314 312 308 305 303 301 301 299 297 297 296 296
310 311 312 313 317 320 322 324 325 329 326 322 321 318 320 319 313 312 311 309 307 306 305 303 301 300 298 297 297 297 296 296
309 310 311 315 319 318 316 316 325 322 316 312 310 309 307 307 306 305 303 304 303 302 302 300 298 298 298 297 297 296 297 297
307 309 312 315 313 311 310 310 310 310 308 306 304 304 305 304 302 302 301 301 300 300 298 298 298 297 297 297 297 296 297 297
308 314 317 314 312 309 308 307 307 307 305 304 303 302 302 301 300 300 299 299 298 298 297 296 296 297 293 294 296 296 296 295
311 317 316 312 310 308 305 304 305 305 304 303 303 302 301 300 300 299 297 297 297 296 296 296 295 296 293 294 292 293 291 290
315 314 312 310 308 306 305 306 305 304 303 303 303 301 300 299 299 298 297 296 294 293 295 295 296 296 292 292 290 290 289 288

GFSFLT1_sfc_thetae_072.txt.gz
Theta_e
317 316 316 316 316 318 319 317 317 318 318 317 318 317 319 320 320 321 322 322 321 319 317 317 315 313 310 309 308 308 306 304
314 313 313 314 316 317 318 317 317 318 315 314 315 314 314 315 318 320 321 321 321 319 318 316 314 312 311 310 308 307 307 303
313 312 311 312 313 314 314 316 315 316 315 313 316 314 313 317 316 319 321 320 321 319 318 316 313 312 311 310 308 307 307 305
313 312 310 312 312 312 312 315 314 315 316 313 314 314 313 313 313 315 320 321 321 321 319 317 315 313 311 309 308 307 305 306
314 313 311 311 311 312 312 313 312 315 317 314 314 313 313 314 314 314 318 322 321 322 321 318 316 314 312 311 311 309 309 308
313 312 313 312 310 310 310 312 313 315 318 316 316 314 316 314 313 313 316 321 323 323 322 320 317 316 315 314 312 310 311 308
314 313 313 309 309 310 310 311 313 316 318 317 316 315 312 312 314 313 315 320 322 323 323 323 321 316 314 314 312 312 310 308
313 311 310 310 309 310 312 313 313 316 318 318 317 315 313 313 313 314 314 318 320 321 322 320 317 317 313 312 312 311 308 307
314 313 312 311 312 313 314 314 315 317 318 318 319 318 317 316 314 315 316 317 320 323 322 319 315 315 311 310 310 306 305 304
313 314 314 314 314 315 316 316 316 317 317 317 317 318 319 318 317 314 317 318 320 317 318 316 315 312 311 309 306 303 304 302
314 315 315 316 316 317 317 318 317 317 318 317 317 317 319 320 317 315 317 316 316 317 314 312 311 311 308 307 304 302 301 300
311 314 316 317 317 317 317 317 317 318 319 319 318 319 320 320 318 318 319 318 318 319 316 312 311 310 307 304 302 300 300 298
309 313 315 316 317 317 317 318 318 319 321 322 321 320 320 320 320 320 321 319 317 315 314 311 308 306 304 302 300 299 298 297
307 308 310 314 318 318 319 320 321 323 323 322 321 321 321 320 321 319 315 314 315 311 308 306 304 302 300 300 299 298 298 298
306 307 310 315 316 317 319 320 322 322 318 316 316 314 315 317 315 313 311 311 307 306 306 304 301 299 299 298 299 298 297 297
307 307 313 312 313 313 313 312 310 313 310 309 306 306 306 305 305 304 304 304 304 304 300 298 299 298 298 298 298 297 296 297
305 310 313 311 310 310 310 309 308 309 307 304 304 304 303 303 301 300 300 300 300 299 298 298 297 297 293 294 296 296 297 296
311 313 314 310 310 309 307 307 308 306 305 304 303 303 301 300 300 299 298 298 298 297 296 296 296 296 293 294 293 295 293 291
312 313 310 308 308 307 307 307 306 305 304 303 303 302 300 300 299 298 297 297 296 295 295 295 296 296 292 292 290 290 286 285

GFSFLT1_sfc_thetae_075.txt.gz
Theta_e
316 315 316 317 317 319 319 319 319 319 318 318 318 318 320 322 322 321 319 316 317 316 314 313 314 312 311 309 307 305 304 302
315 316 316 316 316 317 318 317 317 317 316 315 314 314 317 318 321 320 320 319 318 317 315 314 313 312 312 310 307 306 305 302
311 310 314 314 314 316 317 315 316 317 317 317 317 315 315 316 317 318 320 319 319 318 316 314 314 312 309 307 307 306 305 303
311 310 310 313 313 315 315 315 315 317 316 313 315 315 314 313 312 315 317 319 319 318 317 315 312 311 309 308 307 307 304 305
311 310 308 309 312 313 313 314 314 315 315 311 312 311 310 312 313 313 316 318 318 319 318 316 313 312 309 310 309 308 307 305
311 310 310 310 312 312 311 312 314 315 315 312 311 309 310 311 312 312 312 316 318 319 319 316 315 313 314 312 311 308 309 309
312 312 312 311 309 310 310 310 310 313 314 314 311 311 311 311 310 311 311 313 317 319 319 318 318 316 313 313 312 310 309 308
312 311 310 311 308 308 309 309 309 311 313 315 314 313 312 312 313 313 312 312 315 318 319 319 319 319 316 314 314 312 308 307
312 312 310 310 308 307 308 309 309 310 312 314 316 315 315 314 314 315 314 314 315 318 319 320 320 317 316 314 313 312 309 308
312 313 311 310 308 307 308 309 309 311 312 314 316 316 315 315 314 312 314 313 315 317 320 320 317 313 314 313 311 308 307 306
313 314 313 312 310 309 309 310 311 312 313 315 316 317 317 317 315 313 312 314 315 316 315 313 312 312 310 310 308 306 306 304
312 313 315 314 313 312 312 312 313 314 315 316 315 314 314 316 316 314 315 316 316 316 316 315 312 310 309 308 306 304 303 301
312 313 313 314 314 314 313 314 315 317 318 319 317 318 317 317 317 317 317 318 318 318 319 319 313 310 309 307 303 303 302 301
309 312 313 313 314 314 315 316 316 317 319 319 319 319 318 318 317 318 318 319 319 320 316 313 311 309 306 304 303 301 300 300
307 308 310 313 314 315 315 315 316 317 318 318 318 318 318 318 318 318 319 320 317 313 313 311 306 303 302 301 301 300 299 298
305 307 308 310 310 312 313 314 315 318 317 317 316 312 312 312 314 316 312 311 310 308 305 302 301 300 301 300 299 298 297 296
304 306 311 310 311 309 310 311 310 312 310 311 308 308 307 305 304 303 302 302 302 301 300 299 298 299 296 295 297 297 297 296
304 308 312 310 309 311 311 309 310 309 308 306 305 305 303 302 302 301 300 301 300 298 297 298 297 296 293 294 293 296 294 292
303 308 310 308 309 310 308 309 308 307 306 306 305 304 302 301 300 299 298 297 296 296 296 296 296 295 292 292 291 290 287 285

GFSFLT1_sfc_thetae_078.txt.gz
Theta_e
316 314 316 317 318 319 319 318 318 320 320 320 320 320 321 321 320 318 316 315 315 312 311 311 311 310 308 307 306 306 303 302
315 316 315 316 317 318 319 317 318 318 318 317 317 317 319 320 320 319 316 316 316 314 313 311 312 311 309 308 307 306 304 302
315 315 315 315 316 317 317 317 317 317 317 319 318 316 317 320 320 319 319 316 315 315 313 312 313 311 310 308 307 304 304 302
313 313 313 314 314 316 317 316 317 317 318 317 315 315 316 315 314 316 317 318 316 316 315 314 313 311 310 307 306 306 304 303
312 312 311 312 313 315 317 316 316 317 317 316 313 314 314 315 313 315 316 317 318 318 317 315 314 312 309 309 308 306 306 303
311 311 311 312 313 313 313 314 314 316 315 315 313 311 312 313 313 313 313 316 317 318 317 315 313 312 311 309 308 306 307 306
312 312 310 310 311 311 310 312 313 315 314 311 311 309 310 309 310 312 312 312 315 316 317 316 315 314 312 311 310 308 307 306
310 309 308 308 308 308 309 310 311 313 314 313 311 311 310 310 310 311 309 311 311 314 315 314 315 315 314 313 311 310 308 309
310 311 310 309 309 309 310 309 310 310 312 312 313 311 312 312 311 310 310 310 311 313 315 316 317 317 316 314 314 313 312 311
310 311 311 310 309 308 309 309 310 310 310 311 312 313 311 311 312 311 311 311 312 312 314 316 315 315 314 313 314 313 312 312
310 311 311 311 310 309 309 310 309 310 309 310 311 311 312 312 311 311 312 312 313 313 314 315 313 313 313 313 314 312 310 310
310 312 312 311 310 308 309 309 309 309 309 310 310 312 313 314 315 315 314 314 314 315 316 316 315 314 313 312 312 309 307 307
309 312 312 310 309 308 308 309 309 311 312 313 313 315 316 316 316 317 317 315 315 316 316 316 316 314 312 311 309 306 306 304
307 308 310 312 311 310 309 309 310 311 313 314 314 315 315 315 315 316 315 316 315 316 317 316 316 312 310 309 308 305 305 304
304 306 309 311 312 312 312 312 312 312 313 314 314 316 316 316 313 313 314 316 316 316 316 314 311 308 307 306 304 302 302 303
302 304 305 309 309 310 312 312 313 314 314 314 314 315 317 315 313 313 313 314 315 314 310 307 305 304 303 302 302 300 299 299
301 303 304 305 306 308 309 309 311 313 313 314 315 313 313 313 310 309 309 308 307 306 305 304 302 300 294 295 298 299 299 298
302 304 306 309 308 307 307 309 307 311 312 312 311 308 307 305 304 303 302 301 301 299 299 299 298 297 295 295 294 297 296 292
300 303 306 307 307 306 309 311 310 309 309 307 307 306 304 302 302 301 298 298 298 297 297 297 296 294 292 291 290 290 287 286

GFSFLT1_sfc_thetae_081.txt.gz
Theta_e
318 317 317 318 319 320 318 317 319 320 321 322 322 322 321 322 322 320 320 318 317 316 315 314 314 313 314 313 312 311 310 309
319 317 317 317 319 319 318 317 318 319 318 319 319 318 320 320 321 320 321 320 318 317 317 316 316 316 316 316 314 312 309 310
316 317 317 316 317 319 319 318 318 319 319 319 320 319 320 320 321 320 320 321 319 318 318 317 317 317 318 315 314 312 313 312
315 315 315 315 316 318 318 318 318 318 320 319 318 318 318 318 318 318 321 321 320 320 320 319 319 319 318 317 316 316 313 312
317 315 315 315 316 319 319 319 318 319 319 318 317 316 315 317 317 318 320 322 321 320 320 320 320 320 319 319 318 317 316 313
317 316 316 315 316 317 318 319 319 319 319 318 317 317 318 319 319 320 322 323 322 320 321 322 322 321 321 320 319 317 318 317
318 318 317 314 315 315 317 317 319 320 319 320 318 319 319 317 317 320 321 322 323 324 323 322 323 323 322 321 321 320 318 318
316 316 313 312 313 313 314 315 317 319 318 318 319 319 320 319 320 321 321 321 321 323 324 324 324 324 323 323 322 320 320 319
316 316 316 314 312 312 313 315 316 318 318 317 317 319 318 318 318 320 319 321 321 322 323 324 324 324 324 324 324 323 322 321
315 316 317 316 314 313 313 316 317 318 318 319 318 317 318 318 318 319 320 320 319 320 322 322 323 324 324 324 323 322 321 321
314 315 316 317 316 316 316 317 316 317 318 319 318 318 319 319 319 319 319 320 320 320 320 321 322 323 323 323 321 322 320 318
314 316 317 317 317 315 315 316 316 316 316 317 318 318 319 320 319 319 319 321 321 320 320 321 321 322 322 320 319 316 315 315
314 316 316 316 316 315 314 315 315 317 316 316 316 318 319 318 317 319 321 321 321 319 320 320 321 320 318 315 316 314 311 310
314 315 315 315 315 314 314 314 316 316 316 315 314 315 315 315 316 318 321 321 320 319 319 319 320 320 319 315 315 313 311 310
312 314 316 316 315 315 314 314 316 316 314 315 314 314 316 315 315 318 320 320 320 320 320 318 320 320 318 316 314 312 310 308
308 312 314 316 316 315 315 315 315 315 315 315 315 317 317 318 319 319 320 320 320 321 320 320 320 316 312 310 309 306 305 302
306 308 310 313 314 316 315 315 315 315 314 315 316 317 318 318 319 319 318 317 319 319 318 315 309 307 300 298 302 302 300 299
304 307 309 311 313 315 315 316 316 315 315 315 316 317 317 318 318 314 314 314 309 307 304 303 301 300 294 295 295 300 297 293
305 305 308 312 313 313 315 315 316 316 316 316 317 316 314 309 308 307 303 302 301 300 299 298 297 294 292 292 291 292 289 288

GFSFLT1_sfc_thetae_084.txt.gz
Theta_e
324 321 323 324 323 322 321 320 319 323 323 323 323 322 322 322 322 319 318 317 318 319 319 319 318 315 316 315 316 316 315 314
325 321 321 321 322 320 319 317 321 323 320 319 320 318 320 320 320 320 320 318 318 319 319 320 319 317 319 320 318 316 314 315
323 321 322 321 322 321 318 317 318 320 322 322 321 320 320 320 320 320 320 319 317 319 321 320 319 319 320 320 320 317 317 316
322 321 321 323 322 320 319 318 318 320 321 321 320 320 321 319 320 319 320 322 320 319 321 322 321 324 322 322 321 320 317 318
323 322 321 322 322 321 321 320 319 320 321 319 318 315 314 318 320 320 320 323 322 321 322 323 324 323 323 324 323 322 321 318
323 323 322 323 321 320 321 321 320 319 320 320 318 316 317 321 318 317 317 323 324 323 324 324 324 323 324 325 324 323 322 321
323 325 324 323 321 319 321 320 319 319 320 320 320 318 317 317 316 315 315 321 323 326 324 325 325 324 325 326 326 325 324 324
322 323 323 322 320 319 319 319 319 319 319 320 321 320 319 317 319 316 315 320 320 324 325 324 324 326 326 327 328 327 327 325
321 323 324 322 321 320 318 318 318 320 320 321 323 324 322 320 319 317 321 322 323 325 327 327 328 328 328 329 329 328 328 327
320 323 324 323 322 321 318 318 320 321 320 322 323 324 324 324 324 323 324 326 324 326 327 328 328 329 329 329 327 327 328 328
320 322 324 324 323 322 321 322 322 324 324 323 323 323 324 324 325 324 325 326 326 326 326 327 327 327 327 327 327 328 327 328
319 321 324 325 325 323 321 322 323 323 324 325 324 324 323 324 325 325 325 327 326 325 325 325 324 324 325 326 327 327 326 325
319 320 322 323 324 323 322 322 322 323 324 324 324 325 324 324 325 326 327 326 326 325 324 323 323 323 324 324 324 325 323 321
319 320 320 322 323 323 322 322 322 323 323 323 324 324 324 325 325 326 326 325 325 324 323 323 322 322 322 323 324 323 321 317
317 319 320 321 322 323 323 322 323 322 322 321 322 323 323 324 324 324 323 323 322 323 323 322 322 322 321 322 322 321 320 318
313 317 320 321 322 323 323 323 323 323 321 320 320 322 322 322 322 323 321 321 322 323 323 323 324 322 323 323 323 320 319 316
311 313 319 321 321 322 322 322 322 323 321 320 321 321 321 321 321 321 321 321 322 322 322 323 324 323 306 300 310 314 307 303
309 311 314 319 322 322 322 322 323 322 321 321 320 321 320 321 321 321 321 322 322 321 323 323 319 310 295 295 296 302 298 293
308 310 313 315 320 322 323 323 322 321 320 320 321 320 320 321 320 320 321 319 316 310 304 301 300 295 292 292 291 291 289 289

GFSFLT1_sfc_thetae_087.txt.gz
Theta_e
325 327 326 327 327 325 323 321 321 324 323 322 320 319 319 319 318 318 318 318 319 319 319 318 318 317 320 319 320 322 320 318
325 327 326 327 326 323 322 320 320 322 320 318 317 317 318 317 317 318 319 320 319 319 317 318 316 316 317 321 321 320 317 318
324 326 325 326 325 324 321 320 321 321 321 319 318 317 317 317 318 319 319 318 318 320 321 319 320 318 319 320 321 318 316 319
322 324 324 323 323 322 321 321 321 323 322 321 319 319 319 318 317 316 318 318 317 320 325 321 322 321 321 323 324 321 317 318
323 324 324 324 325 323 324 322 320 322 323 320 317 314 313 316 315 315 318 321 319 317 320 323 321 322 323 323 324 325 324 318
323 325 325 326 327 322 323 322 320 321 322 320 318 315 314 315 316 317 320 322 322 320 319 323 326 325 326 327 327 324 324 322
322 326 327 327 327 325 323 321 320 321 321 320 318 317 315 316 315 316 318 319 320 321 322 326 326 327 327 328 328 326 326 326
321 325 325 326 325 323 321 320 319 320 320 321 320 318 317 318 316 316 314 315 317 320 323 327 326 327 327 327 328 327 328 326
320 324 325 325 325 323 320 319 319 320 320 321 322 321 318 319 320 317 314 315 317 322 327 326 326 327 327 328 328 329 330 329
319 323 326 326 326 324 322 319 320 321 321 321 321 322 323 321 320 319 316 316 316 318 327 325 327 328 329 329 328 329 330 330
319 321 326 327 326 326 324 323 322 322 322 322 323 324 324 325 324 321 322 319 321 323 325 327 327 328 330 329 328 329 328 329
318 321 325 327 326 326 324 323 322 324 322 323 323 323 326 327 326 325 325 323 324 325 325 326 327 328 329 327 328 328 326 327
318 322 324 325 325 326 324 323 322 326 327 325 324 323 324 324 327 328 328 326 327 326 326 326 326 326 327 326 326 325 325 325
319 321 322 324 325 325 324 323 324 325 326 328 328 327 326 326 327 329 329 328 327 327 326 326 326 326 326 326 325 325 325 325
317 320 321 323 324 325 325 325 326 326 324 325 326 328 328 328 328 326 326 326 326 326 327 327 327 326 325 324 323 324 324 324
313 318 321 322 323 325 326 326 326 326 324 324 325 328 327 327 328 328 326 324 326 327 326 326 326 325 324 325 324 323 323 322
312 314 319 322 322 323 326 326 327 326 325 325 324 325 325 327 327 327 327 327 326 326 325 325 325 323 307 302 310 323 319 315
312 313 314 318 323 324 324 325 328 326 325 324 323 323 323 325 324 323 324 324 325 324 324 324 323 324 297 297 297 305 300 295
313 313 314 316 319 324 325 325 325 326 325 324 324 323 322 322 322 322 324 324 323 321 319 316 308 298 295 295 293 293 290 289

GFSFLT1_sfc_thetae_090.txt.gz
Theta_e
323 326 327 326 327 324 322 321 323 324 321 319 319 319 318 319 319 319 319 319 319 319 319 320 320 320 320 318 316 318 315 313
324 326 326 326 326 323 320 320 322 322 318 316 315 314 315 316 317 317 317 317 317 317 317 316 316 315 316 316 317 316 313 316
322 325 325 325 324 322 320 320 322 321 319 318 316 315 314 315 316 316 316 316 317 316 315 314 314 313 314 316 315 313 313 313
320 323 323 325 322 320 320 319 321 321 320 318 317 315 314 312 313 314 315 316 317 316 315 314 314 314 314 315 317 312 310 312
321 323 323 323 324 321 320 321 321 321 319 316 314 311 310 312 312 313 315 317 316 316 315 317 315 316 317 317 320 316 316 311
320 323 324 324 324 321 320 321 321 321 319 317 314 312 313 314 314 313 313 314 315 316 320 319 319 318 319 319 320 321 319 318
321 324 325 324 325 322 320 319 319 321 320 318 315 313 313 313 312 312 313 314 316 316 318 319 319 319 320 321 321 321 320 319
318 323 323 323 324 321 320 319 317 320 320 319 316 314 314 313 312 312 312 314 317 318 318 317 319 321 322 323 321 321 320 319
318 323 323 324 324 322 319 319 318 319 320 320 318 316 315 315 314 314 314 314 315 318 319 320 320 321 322 322 321 321 321 320
316 322 324 324 324 322 320 319 319 319 319 320 320 318 316 316 315 316 315 315 316 317 319 319 321 321 322 321 320 321 321 322
316 320 324 325 325 323 321 319 319 319 319 320 320 320 319 318 318 315 316 315 315 316 318 319 319 320 322 322 321 321 321 322
316 319 325 325 326 323 321 320 319 319 320 320 320 320 320 318 318 319 317 316 315 315 316 317 319 320 321 321 322 321 322 321
316 319 324 324 324 324 322 321 320 320 320 320 320 321 321 320 319 319 320 318 317 316 316 316 317 320 321 320 321 321 320 319
317 319 322 324 324 324 322 322 321 322 321 321 320 321 321 321 321 321 321 320 318 318 316 316 319 320 320 321 321 320 320 320
317 319 320 323 324 324 324 322 322 322 323 321 320 320 321 322 323 323 323 322 321 319 318 319 319 320 321 321 321 320 319 319
314 317 319 321 323 324 325 323 322 322 322 322 321 322 322 322 322 323 324 324 323 322 321 321 321 321 321 320 320 319 318 317
312 314 318 320 322 324 325 324 323 323 322 321 323 324 324 322 322 322 322 322 323 322 321 321 320 321 307 303 311 316 316 312
312 312 314 317 321 323 324 325 325 323 322 322 323 323 323 323 324 324 322 321 321 321 321 321 320 319 296 297 296 307 301 296
313 314 315 315 316 322 324 326 325 323 322 322 323 322 322 322 322 322 322 322 321 320 319 319 305 296 292 292 291 292 290 290

GFSFLT1_sfc_thetae_093.txt.gz
Theta_e
317 320 320 322 320 320 319 319 322 322 321 320 320 319 320 322 324 326 328 328 327 324 323 321 321 320 317 316 315 314 314 314
318 320 319 319 319 317 317 318 321 319 318 316 315 314 315 316 319 321 323 325 324 323 321 320 321 318 316 315 315 313 312 312
318 318 319 319 317 317 317 318 321 319 318 317 316 315 315 315 316 316 318 320 321 320 318 316 317 316 314 313 314 311 311 312
317 317 318 317 316 315 317 319 320 319 318 316 315 314 314 312 312 313 315 317 319 318 316 314 313 313 312 312 313 311 309 309
317 317 317 316 316 317 317 319 320 319 318 315 312 311 309 312 312 312 314 316 316 316 314 314 313 312 311 313 315 311 309 307
317 317 318 317 317 316 317 319 320 318 317 315 312 310 311 312 312 311 313 314 316 315 315 314 314 314 313 314 315 313 313 310
318 319 319 317 317 316 317 319 319 318 316 315 311 309 310 310 310 311 311 313 313 314 314 314 313 314 316 316 317 316 316 315
317 317 317 317 315 315 316 318 318 318 316 314 313 313 312 311 310 312 310 311 312 314 314 315 316 317 318 317 317 318 318 317
318 318 318 318 316 315 316 317 318 318 317 315 313 314 314 313 311 312 312 311 311 314 315 317 317 317 318 318 319 319 318 317
318 318 319 319 316 316 316 316 317 319 318 316 314 314 314 313 312 311 313 313 313 315 315 315 316 319 319 319 319 318 318 318
318 319 319 320 318 317 316 317 317 318 319 319 316 315 315 314 314 311 313 313 314 314 316 316 316 317 319 319 318 318 318 317
312 319 320 321 319 317 316 316 317 317 318 319 319 317 316 315 315 313 315 314 315 315 315 315 315 317 319 318 317 317 318 318
309 320 320 320 319 317 316 316 317 318 319 319 319 319 318 315 315 315 314 314 314 315 315 316 316 317 317 318 318 318 317 317
310 319 319 320 319 317 317 316 316 317 318 318 318 319 318 316 315 316 316 315 313 314 314 314 315 317 318 318 318 317 317 318
310 318 319 320 320 319 318 317 317 317 318 318 317 318 319 318 316 316 317 317 315 313 313 313 313 314 316 318 318 317 317 318
310 312 318 319 319 319 319 318 318 318 317 317 316 318 318 319 319 318 317 317 317 316 315 314 313 313 314 316 317 317 317 316
308 310 314 320 320 320 320 319 318 319 319 317 318 318 318 319 319 320 319 318 318 317 316 315 314 315 306 302 310 317 315 314
310 311 311 311 314 320 320 320 320 319 318 320 319 319 318 318 319 319 319 319 320 319 318 318 316 315 302 301 300 313 308 303
310 311 311 311 312 312 314 321 320 319 318 318 320 320 319 319 319 318 318 318 318 319 319 319 312 297 293 293 293 295 292 292

GFSFLT1_sfc_thetae_096.txt.gz
Theta_e
315 319 321 320 320 320 319 318 320 321 322 321 321 321 323 325 328 328 327 328 325 322 319 316 312 314 316 315 313 313 313 313
318 319 319 319 318 317 317 317 320 320 319 317 317 316 317 319 323 327 327 328 325 322 320 318 312 316 317 315 313 313 312 312
316 317 317 317 316 316 316 318 318 319 319 317 316 316 315 317 318 320 327 327 325 322 320 318 314 318 315 314 313 310 310 312
314 316 315 315 315 315 316 317 318 318 318 316 315 314 313 312 314 315 318 325 324 323 319 319 318 317 314 314 313 312 310 309
315 316 314 314 314 315 316 317 318 318 316 315 313 311 310 312 312 313 316 320 323 322 320 319 318 316 314 314 313 311 311 309
314 315 315 315 315 315 316 317 318 317 315 314 313 312 312 312 312 312 314 315 318 319 318 317 314 314 313 314 312 311 310 309
315 317 316 315 315 315 315 317 316 317 315 314 313 312 311 310 310 311 312 314 315 315 315 315 315 313 313 313 314 313 312 311
314 314 313 314 313 313 315 316 314 316 315 314 310 310 310 311 311 311 311 312 313 313 314 313 313 314 315 315 315 316 314 313
314 315 314 314 313 313 315 315 314 315 314 313 311 310 311 312 312 312 312 312 313 313 313 314 314 314 315 316 315 315 317 315
315 316 315 314 314 314 315 315 315 316 314 314 312 312 312 312 312 312 312 311 313 312 313 313 315 314 315 316 315 315 316 316
316 316 316 316 315 315 315 316 316 316 315 315 313 313 312 313 312 310 311 311 312 313 313 314 316 315 316 316 316 316 316 316
316 317 317 317 316 315 314 315 316 316 316 316 314 313 314 313 312 312 312 312 312 314 313 314 314 315 316 316 315 317 316 315
316 317 318 316 315 315 314 314 315 316 317 318 315 314 314 314 313 312 313 313 313 314 314 313 313 313 314 315 316 317 316 315
308 317 317 316 315 315 314 315 315 316 318 318 318 316 314 314 314 314 313 314 313 313 314 313 313 313 314 315 316 316 316 316
311 316 317 317 316 315 315 315 316 316 316 317 317 317 316 315 315 314 314 313 312 312 313 313 313 313 313 314 315 316 316 317
311 314 316 317 316 316 316 315 316 316 316 315 315 317 319 318 316 315 315 313 313 313 312 312 312 312 313 314 315 314 315 315
309 311 315 318 317 316 317 316 315 316 315 314 315 316 318 318 317 316 315 315 314 313 312 311 310 311 303 300 307 314 313 313
308 308 309 310 313 319 317 317 318 316 315 316 316 316 315 317 318 317 316 315 315 314 313 313 311 311 300 299 298 312 313 312
304 303 304 304 306 310 313 320 318 317 316 316 316 316 315 315 316 317 318 318 316 315 314 314 315 313 299 298 296 303 295 293

GFSFLT1_sfc_thetae_099.txt.gz
Theta_e
303 307 317 321 321 320 320 320 319 318 319 319 319 324 326 327 328 327 328 328 324 321 319 317 316 314 314 313 311 311 314 314
307 315 319 319 319 319 318 317 320 320 318 318 318 319 319 322 326 327 327 328 324 321 318 316 313 313 314 312 312 311 310 315
313 316 317 317 318 317 316 317 320 319 319 318 315 317 317 319 321 323 327 327 324 322 319 315 311 313 314 312 312 309 309 314
312 315 316 316 317 316 316 318 318 318 316 314 314 314 314 314 315 319 321 327 324 322 319 316 311 315 314 312 313 312 310 309
312 315 315 316 316 316 317 317 316 317 316 314 313 312 311 312 313 315 317 322 324 323 321 317 313 317 314 313 314 313 313 309
311 314 316 316 316 315 317 317 316 316 316 312 311 312 313 312 312 313 316 318 323 323 320 316 314 317 315 314 312 311 313 310
311 316 316 315 315 315 316 316 316 316 315 311 311 312 311 310 311 311 313 314 318 320 319 316 317 316 315 313 312 311 311 311
308 313 313 314 313 314 315 315 315 315 313 311 311 311 312 311 311 312 312 313 313 315 318 316 315 315 316 315 313 312 312 310
309 314 314 314 313 314 315 315 314 314 313 311 312 311 312 312 312 313 313 313 314 315 315 316 315 315 316 315 314 314 313 312
309 314 314 314 314 313 314 314 314 314 313 310 309 310 311 311 311 312 312 314 314 314 316 316 316 316 315 314 314 313 315 314
312 315 314 314 314 314 315 315 314 314 313 310 309 310 311 311 313 312 311 312 313 313 313 315 315 315 315 314 313 314 314 315
314 315 315 314 314 314 314 315 315 314 314 311 310 310 310 311 311 311 310 311 312 312 312 314 313 313 313 313 313 313 314 314
307 316 315 314 314 314 314 315 314 315 315 313 310 311 311 310 310 311 312 310 311 313 313 312 313 313 313 313 312 313 313 313
307 315 315 314 314 314 313 314 315 315 315 313 311 310 311 310 310 311 312 311 311 312 313 312 312 313 313 313 313 313 313 313
308 311 315 315 314 314 314 314 315 316 315 314 312 311 311 312 312 312 312 313 311 310 312 313 312 312 313 313 314 313 314 314
306 311 315 314 313 314 314 314 315 316 315 315 314 313 313 312 313 313 312 312 312 311 311 311 312 311 311 311 312 312 312 312
304 305 306 313 315 314 315 314 315 315 314 314 315 316 315 314 313 314 313 312 312 312 311 311 310 311 302 300 306 310 309 310
301 301 302 303 306 310 314 316 317 316 315 315 315 315 314 317 316 315 313 313 313 311 311 310 310 310 299 298 298 310 310 310
299 299 299 301 303 304 306 313 317 316 315 315 315 314 314 314 317 316 315 314 313 313 311 310 310 309 299 298 296 305 306 301

GFSFLT1_sfc_thetae_102.txt.gz
Theta_e
302 301 304 318 320 321 320 321 320 318 318 320 321 323 325 326 326 325 327 327 324 323 321 319 320 319 316 316 313 315 314 313
303 307 303 315 317 318 319 320 318 319 320 320 320 321 321 323 325 327 327 327 324 321 319 316 317 316 314 314 313 313 313 314
303 312 312 315 317 318 320 319 319 320 320 321 319 319 319 321 324 326 327 327 324 321 318 316 316 315 313 313 313 312 313 314
300 311 312 313 316 318 319 318 319 320 320 318 315 315 315 316 317 321 324 326 324 322 319 316 315 315 313 312 313 313 311 313
300 306 311 314 316 319 318 318 319 319 318 315 313 311 311 313 316 317 319 324 324 323 319 316 314 314 313 312 314 314 314 310
302 303 313 315 316 317 318 318 318 317 316 316 314 313 314 313 313 315 316 318 323 322 319 316 312 314 314 312 313 312 314 312
306 306 312 314 316 316 317 317 316 316 315 314 312 310 312 311 312 313 315 316 320 322 321 317 313 315 314 312 314 313 313 313
305 306 311 313 314 315 316 315 313 314 313 313 309 309 311 311 311 312 313 314 315 320 319 317 314 317 315 313 312 312 312 312
306 307 310 313 314 315 315 315 314 314 313 313 310 310 311 311 312 313 313 314 315 317 318 315 315 316 315 314 314 312 312 311
305 308 311 314 314 314 315 315 315 314 313 312 310 310 311 311 311 312 313 315 315 315 317 315 316 315 315 314 312 313 312 312
305 308 312 315 315 315 316 315 314 314 313 311 309 309 309 309 310 310 313 314 315 315 315 315 315 315 314 314 314 314 312 312
305 309 314 315 315 314 314 314 314 314 313 311 309 308 309 309 310 310 311 313 313 314 315 314 314 314 315 314 313 313 312 312
306 309 313 314 314 313 313 314 314 315 313 311 308 309 309 309 309 310 311 310 313 314 314 315 315 314 314 314 313 313 312 312
307 307 313 313 314 313 313 314 314 315 314 312 309 308 309 308 308 309 310 309 310 312 313 313 313 313 313 313 313 313 312 312
304 305 314 314 314 313 313 314 315 315 314 312 310 309 309 309 309 308 309 309 310 310 312 312 312 312 313 313 313 312 312 312
302 303 304 312 314 314 314 315 316 315 314 313 311 309 310 310 309 308 309 309 309 311 311 311 311 311 312 312 313 312 312 311
300 300 301 302 305 313 314 314 316 316 314 314 314 313 310 310 310 309 308 310 310 311 310 310 309 310 302 300 306 311 311 310
298 297 298 299 301 303 310 315 316 316 316 316 315 314 313 311 310 311 311 310 311 310 310 310 310 310 298 299 298 310 309 309
295 295 294 295 298 300 304 313 316 315 314 315 316 315 315 315 313 312 312 312 311 310 310 310 310 310 298 297 295 306 306 306

GFSFLT1_sfc_thetae_105.txt.gz
Theta_e
310 311 312 313 316 325 327 329 330 330 328 326 327 327 327 329 329 329 330 328 327 329 328 324 324 321 318 318 317 317 317 317
309 311 314 316 317 323 326 327 328 327 323 322 323 324 325 326 328 328 327 328 328 327 325 322 324 320 316 316 317 315 317 321
309 311 315 319 319 323 325 326 325 328 326 326 327 326 325 325 327 327 327 328 327 324 321 319 320 319 317 315 316 315 315 317
311 311 311 317 320 322 323 325 323 328 328 326 325 322 322 321 322 325 326 328 325 324 320 318 316 316 315 316 316 316 313 315
310 311 312 313 318 323 323 323 322 325 325 322 322 320 318 319 320 323 326 328 324 323 320 319 318 317 315 316 317 316 315 313
309 310 312 315 318 321 322 321 321 323 323 323 321 318 319 319 320 319 323 325 325 322 320 318 317 317 316 316 316 316 317 317
309 312 313 314 320 322 321 319 319 321 322 320 317 317 319 318 316 316 319 319 321 323 319 318 316 316 315 316 317 317 317 318
309 310 311 312 316 320 320 318 317 319 319 317 316 318 318 317 316 315 317 317 319 321 319 317 316 315 315 314 315 318 320 318
308 309 310 312 317 319 318 317 316 318 317 315 315 319 319 319 318 317 317 319 319 323 321 318 316 315 315 314 314 315 315 317
308 310 311 312 315 319 318 316 316 316 316 316 316 318 319 319 318 316 316 319 319 322 321 318 315 315 315 313 313 314 314 315
308 310 311 313 315 319 318 317 316 316 315 318 316 317 319 319 318 314 316 319 319 320 318 316 315 316 314 314 313 314 314 313
308 310 311 312 314 319 317 317 316 315 316 317 314 315 317 318 317 317 317 319 318 317 317 315 315 315 314 312 311 312 312 312
307 307 307 312 314 317 316 316 316 315 316 315 312 314 316 316 316 317 319 317 317 317 316 315 315 315 314 312 310 311 312 311
306 304 304 309 315 314 315 315 315 315 315 313 311 312 314 315 316 317 317 318 315 317 316 314 314 315 313 313 312 311 311 313
303 301 301 304 315 314 314 314 315 315 314 312 310 311 314 315 316 316 316 317 317 315 315 315 315 315 314 313 314 313 312 312
300 299 298 299 303 311 314 315 315 316 314 312 311 312 312 314 315 315 315 315 316 316 316 316 315 314 314 313 313 313 313 312
297 296 295 295 297 301 314 314 315 316 314 313 313 312 312 313 314 314 315 315 315 315 314 315 316 316 302 301 308 312 312 311
294 293 292 293 295 299 303 312 317 315 315 315 314 312 312 313 314 314 314 314 315 314 314 313 313 315 298 299 299 317 314 313
292 291 291 291 293 295 298 310 316 315 316 315 315 314 313 313 313 314 314 314 313 313 313 312 312 311 297 297 296 316 316 316

GFSFLT1_sfc_thetae_108.txt.gz
Theta_e
316 317 318 319 320 322 326 331 336 338 341 338 333 334 334 336 337 336 337 336 334 335 334 331 326 321 319 319 320 320 319 319
313 315 320 321 323 323 323 327 333 334 333 330 328 327 330 331 334 335 336 334 336 332 331 329 324 319 319 320 319 317 317 320
312 317 320 322 324 325 326 328 332 334 331 330 331 329 329 331 332 335 333 334 333 329 328 327 323 320 320 321 319 317 317 320
313 316 319 322 323 325 326 328 331 333 334 329 330 330 329 328 329 330 331 332 331 329 328 326 324 321 317 318 318 317 314 318
315 316 318 321 323 325 327 328 330 332 333 328 328 327 324 328 327 328 329 330 329 329 329 327 323 321 318 317 318 317 317 315
314 316 318 320 322 326 327 328 329 329 330 328 329 330 330 331 330 328 326 328 329 329 324 321 319 319 318 318 318 317 317 316
314 316 318 319 322 325 328 327 327 327 326 328 330 331 330 327 324 323 322 324 327 325 323 321 320 319 318 318 318 317 317 317
313 314 316 317 319 322 325 326 324 324 324 325 329 331 329 328 327 324 320 322 324 325 320 320 318 318 321 319 319 318 318 317
312 313 315 317 318 320 323 324 322 321 321 322 326 328 329 327 326 323 322 322 326 323 321 322 319 319 319 319 318 318 319 318
312 314 316 317 317 320 322 322 321 321 320 320 321 325 328 326 326 325 323 324 324 325 320 319 318 317 317 316 316 316 318 318
312 313 314 315 315 318 322 324 319 321 319 318 318 325 327 327 325 320 322 322 324 323 323 320 317 316 316 315 314 315 315 317
311 312 312 311 314 312 322 320 318 319 318 317 320 324 325 325 323 320 320 323 323 323 324 320 317 316 315 314 313 314 314 315
310 310 308 307 305 302 317 318 318 319 318 318 320 321 324 321 321 319 320 321 322 322 320 318 315 315 315 313 312 313 313 313
309 308 306 303 300 300 315 318 318 318 318 317 318 318 320 319 320 320 320 321 322 321 320 318 316 315 314 313 313 312 313 313
304 305 304 299 298 298 303 317 318 317 316 316 316 316 318 319 319 319 319 319 319 318 317 319 318 317 316 314 312 311 311 312
299 298 299 296 295 296 298 316 315 315 314 314 314 315 317 319 318 319 319 318 318 320 318 318 319 317 316 315 313 312 311 311
297 295 294 293 293 294 296 312 315 315 314 313 314 314 314 316 318 318 318 317 318 318 317 317 316 316 301 301 309 312 311 311
293 291 291 291 292 293 294 300 315 314 314 314 314 315 314 315 316 316 316 317 318 317 317 317 316 316 298 299 299 315 312 312
291 290 289 289 290 292 293 301 311 310 309 311 314 314 314 316 315 315 316 317 316 317 317 317 316 316 297 298 297 315 312 312

GFSFLT1_sfc_thetae_111.txt.gz
Theta_e
318 319 321 321 322 324 327 330 338 341 343 346 343 340 339 340 339 339 340 340 339 338 337 339 338 332 329 327 324 323 322 322
318 320 319 320 323 323 323 324 331 338 336 338 340 333 334 335 339 339 339 337 336 335 334 334 333 328 325 324 322 321 320 322
316 316 318 321 323 324 326 326 327 330 334 336 338 332 332 334 336 339 338 337 335 334 334 330 326 324 323 322 319 317 318 321
312 313 319 322 323 325 325 327 328 330 334 337 334 333 331 330 331 334 336 336 334 335 334 331 325 323 320 320 319 318 315 319
312 316 318 321 323 325 328 328 328 330 335 334 330 328 326 328 331 333 333 336 334 333 332 329 325 322 320 320 322 319 317 315
314 316 317 318 321 324 328 329 329 330 332 334 331 328 331 333 333 332 330 333 331 333 331 327 325 322 321 319 319 317 317 315
314 316 317 318 320 323 326 327 328 330 331 333 331 328 332 331 332 331 328 331 332 330 329 328 327 325 321 319 320 318 317 316
312 313 314 316 318 321 322 323 326 329 330 329 330 330 332 333 333 331 328 327 328 328 325 326 325 324 323 320 319 318 317 317
312 313 315 317 318 320 321 322 323 327 328 325 329 329 330 331 331 330 328 327 328 326 324 323 322 322 323 320 318 318 318 317
312 314 316 316 316 317 319 319 321 325 327 325 327 328 328 329 333 332 328 327 326 327 326 324 323 321 322 320 318 317 317 317
312 313 314 314 314 315 317 319 321 324 325 324 325 324 329 330 332 328 327 325 326 325 323 321 320 318 318 318 318 318 317 317
312 311 312 312 312 312 313 314 321 324 323 323 323 322 326 328 329 327 326 325 325 325 325 322 320 318 317 315 316 316 316 316
310 311 312 311 309 308 307 306 316 323 321 321 320 321 324 326 326 324 325 325 325 324 324 321 319 317 316 314 313 314 314 314
308 308 307 308 307 306 302 301 302 320 319 318 318 319 322 323 323 322 322 324 322 323 321 321 318 316 315 315 314 313 313 314
304 304 304 305 305 302 298 298 299 318 319 318 317 319 321 321 321 322 320 322 321 320 320 320 318 316 315 314 313 312 313 313
300 300 299 301 301 299 296 297 299 316 317 316 316 318 319 321 319 320 320 321 321 320 319 319 320 318 316 315 314 312 312 312
296 296 296 296 296 293 293 294 296 302 314 313 315 316 318 320 319 318 318 320 321 320 318 318 317 317 301 301 309 312 311 311
292 292 292 293 292 291 291 292 293 303 313 313 314 314 316 317 317 317 318 317 319 319 320 320 318 320 299 299 299 315 312 312
289 289 289 290 290 291 291 291 293 306 308 310 314 315 315 315 316 316 317 318 317 317 317 318 319 318 297 297 296 315 314 314

GFSFLT1_sfc_thetae_114.txt.gz
Theta_e
316 317 318 318 319 324 329 337 341 345 343 343 344 342 340 340 339 339 339 337 340 337 335 335 336 334 331 330 328 329 326 325
318 319 320 324 322 322 324 328 338 340 340 340 339 338 337 336 337 338 336 336 337 335 334 333 333 330 327 327 325 323 322 324
316 318 320 320 321 325 326 326 326 332 337 337 339 339 337 335 335 337 337 337 336 333 333 330 330 327 325 324 322 319 320 323
314 316 319 322 323 325 324 325 326 328 327 334 336 335 332 330 331 331 336 336 335 334 331 330 328 326 323 323 322 319 316 319
311 314 317 320 323 326 325 327 327 327 331 329 333 329 327 329 330 330 333 334 333 333 332 328 326 325 322 322 322 320 319 316
310 315 317 319 322 325 325 327 328 328 329 330 333 330 330 329 328 328 329 331 332 331 331 328 325 323 322 321 320 319 319 318
313 316 317 319 321 323 324 324 323 328 329 330 332 329 328 327 328 326 328 330 330 331 330 328 325 323 321 321 320 319 318 319
311 312 313 316 318 320 320 320 319 323 329 328 331 331 329 328 329 329 327 327 327 328 329 326 325 323 321 321 320 319 318 316
312 313 315 315 316 316 316 315 316 320 320 327 328 331 329 328 330 330 327 326 327 329 328 326 324 324 322 320 320 318 318 317
311 313 314 313 313 313 313 313 314 317 318 321 326 327 328 327 331 329 328 327 327 327 327 324 323 322 321 320 318 317 317 317
311 311 311 312 313 312 312 311 311 314 315 319 325 324 326 328 329 327 327 327 325 325 324 322 321 321 320 319 318 318 316 317
310 311 311 311 312 310 309 307 306 307 309 316 324 323 325 327 327 326 326 326 325 325 323 322 321 319 319 318 317 317 316 316
308 308 307 307 308 307 305 304 303 303 305 319 322 323 324 325 325 325 324 323 324 324 322 320 319 317 317 317 316 316 315 315
303 304 303 303 304 304 302 302 300 300 303 314 319 320 321 322 323 322 323 323 322 321 323 320 318 317 316 315 315 315 315 316
300 300 300 300 300 300 299 298 299 298 301 312 317 317 319 320 321 321 321 321 320 319 322 319 317 316 315 314 314 313 314 314
297 296 296 296 296 296 295 295 296 296 297 305 316 318 319 320 319 319 320 320 319 319 319 318 317 316 315 314 313 312 312 312
294 293 292 292 292 291 292 292 293 294 297 303 317 317 317 318 318 318 319 318 318 318 316 317 316 316 301 301 309 312 312 311
290 290 289 289 289 290 290 292 293 292 299 311 315 316 316 317 317 317 317 317 318 317 316 316 315 315 299 299 300 313 311 310
288 288 287 287 288 288 290 290 290 290 291 296 307 314 315 317 316 316 316 317 316 317 316 316 316 308 296 297 296 313 311 310

GFSFLT1_sfc_thetae_117.txt.gz
Theta_e
310 309 310 313 311 314 329 336 339 339 340 337 336 334 334 335 338 337 336 336 337 334 333 332 332 328 325 326 326 322 326 325
311 310 310 308 311 314 324 336 337 338 335 333 331 334 333 330 333 335 336 336 337 335 333 331 332 329 327 327 327 325 322 323
310 310 309 310 313 315 316 327 337 338 337 336 334 332 332 334 330 332 334 332 334 336 334 330 329 327 327 326 324 321 321 324
308 311 309 310 313 314 315 317 320 329 335 332 329 328 326 326 326 328 331 332 332 333 332 330 328 325 324 324 323 322 318 322
308 312 310 310 312 315 317 320 320 321 320 326 327 326 322 324 325 326 330 333 333 334 332 329 325 324 324 324 323 321 319 316
307 311 311 311 313 314 316 319 319 320 320 321 327 324 327 324 324 324 325 331 333 332 331 328 325 323 321 322 322 321 320 318
311 311 311 312 312 312 312 312 313 316 319 319 326 325 324 322 323 324 326 327 330 329 330 327 326 325 322 322 322 320 320 319
308 309 309 309 309 309 310 311 310 311 313 315 317 325 324 323 324 324 324 325 327 329 329 326 324 323 322 322 320 320 319 318
309 308 307 307 308 308 307 308 308 309 311 313 314 316 326 325 326 327 325 326 328 329 328 326 325 323 322 322 320 320 319 318
306 307 307 306 306 307 306 305 306 306 306 308 309 314 322 326 326 327 327 329 328 328 327 325 324 323 321 321 320 319 318 317
306 305 306 307 307 305 305 303 303 303 303 303 306 309 313 326 324 323 326 327 327 327 326 325 323 322 321 320 319 318 317 317
302 303 303 303 303 303 302 301 300 300 301 300 302 303 311 323 322 322 324 326 325 326 324 322 321 321 320 319 318 317 316 316
300 300 299 299 299 299 298 298 297 298 298 298 301 303 319 321 321 322 325 324 324 323 321 321 320 319 319 318 316 316 315 315
297 296 295 296 296 296 295 295 295 295 296 296 299 302 320 320 321 321 324 323 323 323 321 320 319 318 317 317 317 316 316 315
294 293 292 292 293 293 292 293 294 294 294 294 297 300 317 320 321 319 322 322 321 321 320 320 318 317 317 316 316 315 316 315
291 290 290 290 290 290 290 291 292 293 293 294 296 300 315 319 320 320 321 321 319 320 321 319 317 316 316 315 315 314 313 313
289 289 289 288 288 288 289 290 290 292 292 293 295 304 315 317 318 318 319 318 318 318 317 316 315 316 301 301 309 313 312 312
288 287 286 287 287 288 287 289 290 290 291 292 293 295 316 317 318 318 317 317 317 315 316 316 314 315 298 299 300 312 311 311
286 286 286 286 287 287 288 288 288 288 288 289 290 291 300 317 317 316 317 316 315 314 314 315 313 303 297 297 297 311 310 310

GFSFLT1_sfc_thetae_120.txt.gz
Theta_e
306 306 307 307 306 318 330 333 336 338 338 336 334 336 336 336 337 337 336 338 336 335 333 331 330 327 324 326 325 320 326 327
306 307 308 306 305 308 328 330 334 337 336 334 331 332 332 333 335 337 336 336 336 334 333 333 333 329 326 325 325 325 324 326
306 307 304 306 309 311 326 331 333 336 336 336 333 331 330 333 333 334 336 334 335 335 333 331 333 329 325 325 326 323 322 325
305 307 306 310 311 317 329 334 335 336 335 331 328 328 326 326 325 330 333 334 334 334 333 332 331 330 328 327 326 324 320 323
305 306 307 310 310 315 318 321 322 324 327 328 324 327 327 326 328 329 330 332 332 332 331 329 330 329 328 326 325 324 322 319
309 309 309 309 309 309 311 312 313 317 318 320 326 325 326 323 323 326 328 330 332 333 331 331 329 327 326 324 323 322 322 319
309 309 308 306 307 307 308 308 308 311 313 314 317 320 323 322 322 323 323 326 331 331 331 329 329 327 323 323 323 322 321 320
306 305 305 305 304 305 306 306 306 307 307 307 309 310 313 321 323 325 325 324 322 326 328 328 327 326 324 323 322 321 320 319
304 304 304 304 304 303 303 303 303 304 304 303 304 306 308 313 323 324 325 325 326 328 327 328 327 325 324 323 322 321 321 320
302 303 303 302 301 301 301 301 301 301 301 301 301 302 304 308 312 325 326 326 325 327 328 327 325 324 323 322 321 320 319 319
298 298 299 300 300 299 299 299 298 298 298 298 299 299 301 304 308 313 325 326 325 326 327 327 324 323 322 321 320 320 318 318
295 296 297 297 297 296 296 295 295 295 295 296 296 297 299 303 305 310 323 325 326 325 327 326 324 322 321 320 319 318 318 317
294 293 294 293 293 293 292 293 293 294 294 295 295 296 298 301 305 315 323 324 324 325 327 325 323 322 321 319 318 317 317 315
292 291 290 291 291 290 290 291 291 293 294 294 294 295 297 299 302 320 322 323 322 325 325 322 321 320 319 319 318 317 316 316
290 289 288 289 289 289 289 290 291 291 292 293 292 294 296 298 303 315 322 322 322 323 322 321 320 319 318 318 317 316 316 316
288 287 287 287 287 288 289 289 289 290 290 291 292 293 295 298 304 313 320 321 322 322 320 320 319 317 317 317 316 315 315 314
287 287 286 286 286 286 287 288 288 288 288 289 290 292 294 296 300 314 319 319 321 321 319 317 316 316 301 302 310 314 314 313
285 285 285 285 285 286 286 287 288 287 287 287 289 290 291 294 296 315 318 318 318 318 317 316 315 315 299 299 300 313 312 312
285 285 284 284 285 285 286 287 286 285 285 285 287 288 289 292 295 303 317 317 316 316 315 315 314 307 297 297 297 311 310 310